GJOHN PASY-UHPP

Flight info

Callsign GJOHN
Flight time 5h 4m
Altitude 8500
Route EARECKSON AS SYA PAAT HEDMI NYMPH LUMES BUKOT RAPAK TUSOM PIRUT HLK YELIZOVO PETROPAVLOVSK KAMCHATSKY RUSSIA
Aircraft C182/L-VGDW/C

Departure

Time 2026-05-07 14:50
Airport Eareckson Air Station (PASY)

Arrival

Time 2026-05-07 19:54
Airport Yelizovo Airport (UHPP)
Time Latitude Longitude Altitude Speed Heading
2026-05-07 14:42 52.71296 174.11708 102 ft 0 kts 17°
2026-05-07 14:45 52.71296 174.11709 102 ft 0 kts 17°
2026-05-07 14:46 52.71297 174.11709 102 ft 0 kts 17°
2026-05-07 14:46 52.71300 174.11725 102 ft 4 kts 124°
2026-05-07 14:46 52.71260 174.11700 102 ft 12 kts 212°
2026-05-07 14:46 52.71232 174.11681 102 ft 0 kts 190°
2026-05-07 14:47 52.71213 174.11714 102 ft 8 kts 107°
2026-05-07 14:47 52.71192 174.11837 102 ft 15 kts 105°
2026-05-07 14:47 52.71162 174.12009 102 ft 13 kts 106°
2026-05-07 14:48 52.71136 174.12117 102 ft 10 kts 134°
2026-05-07 14:48 52.71078 174.12128 102 ft 6 kts 198°
2026-05-07 14:48 52.71056 174.12116 102 ft 4 kts 195°
2026-05-07 14:48 52.70958 174.12052 102 ft 11 kts 239°
2026-05-07 14:49 52.70960 174.11960 102 ft 7 kts 286°
2026-05-07 14:49 52.71033 174.11555 102 ft 68 kts 287°
2026-05-07 14:49 52.71217 174.10619 221 ft 96 kts 283°
2026-05-07 14:49 52.71455 174.09546 475 ft 105 kts 297°
2026-05-07 14:50 52.71883 174.08531 731 ft 110 kts 297°
2026-05-07 14:50 52.72062 174.07331 980 ft 108 kts 260°
2026-05-07 14:50 52.71896 174.06130 1237 ft 109 kts 258°
2026-05-07 14:50 52.71871 174.05704 1325 ft 110 kts 261°
2026-05-07 14:51 52.71861 174.05390 1389 ft 110 kts 263°
2026-05-07 14:51 52.71852 174.04119 1643 ft 111 kts 265°
2026-05-07 14:51 52.71859 174.02896 1886 ft 112 kts 266°
2026-05-07 14:51 52.71869 174.01707 2119 ft 112 kts 265°
2026-05-07 14:52 52.71881 174.00430 2369 ft 112 kts 265°
2026-05-07 14:52 52.71966 173.99152 2619 ft 113 kts 276°
2026-05-07 14:52 52.72123 173.97900 2871 ft 111 kts 278°
2026-05-07 14:52 52.72289 173.96675 3122 ft 108 kts 279°
2026-05-07 14:53 52.72456 173.95480 3371 ft 106 kts 279°
2026-05-07 14:53 52.72624 173.94289 3621 ft 105 kts 279°
2026-05-07 14:53 52.72787 173.93131 3868 ft 103 kts 278°
2026-05-07 14:53 52.72949 173.91987 4113 ft 102 kts 278°
2026-05-07 14:54 52.73110 173.90855 4359 ft 101 kts 278°
2026-05-07 14:54 52.73268 173.89738 4604 ft 100 kts 278°
2026-05-07 14:54 52.73424 173.88632 4848 ft 99 kts 278°
2026-05-07 14:54 52.73580 173.87536 5092 ft 98 kts 278°
2026-05-07 14:55 52.73732 173.86456 5336 ft 96 kts 278°
2026-05-07 14:55 52.73883 173.85388 5579 ft 95 kts 278°
2026-05-07 14:55 52.74032 173.84337 5823 ft 94 kts 278°
2026-05-07 14:55 52.74178 173.83303 6066 ft 92 kts 277°
2026-05-07 14:56 52.74321 173.82285 6308 ft 90 kts 277°
2026-05-07 14:56 52.74462 173.81288 6550 ft 88 kts 277°
2026-05-07 14:56 52.74599 173.80313 6791 ft 86 kts 277°
2026-05-07 14:56 52.74733 173.79359 7042 ft 83 kts 276°
2026-05-07 14:57 52.74861 173.78447 7252 ft 84 kts 276°
2026-05-07 14:57 52.74995 173.77492 7456 ft 85 kts 276°
2026-05-07 14:57 52.75129 173.76536 7658 ft 86 kts 277°
2026-05-07 14:57 52.75265 173.75572 7860 ft 86 kts 277°
2026-05-07 14:58 52.75399 173.74615 8058 ft 86 kts 277°
2026-05-07 14:58 52.75535 173.73649 8259 ft 86 kts 277°
2026-05-07 14:58 52.75670 173.72689 8455 ft 86 kts 277°
2026-05-07 14:58 52.75814 173.71641 8501 ft 102 kts 278°
2026-05-07 14:59 52.75984 173.70421 8510 ft 116 kts 279°
2026-05-07 14:59 52.76176 173.69070 8509 ft 120 kts 280°
2026-05-07 14:59 52.76367 173.67727 8504 ft 120 kts 279°
2026-05-07 14:59 52.76556 173.66385 8502 ft 120 kts 279°
2026-05-07 15:00 52.76745 173.65038 8502 ft 121 kts 279°
2026-05-07 15:00 52.76935 173.63683 8502 ft 121 kts 279°
2026-05-07 15:00 52.77124 173.62329 8501 ft 121 kts 279°
2026-05-07 15:00 52.77313 173.60972 8501 ft 122 kts 279°
2026-05-07 15:01 52.77502 173.59612 8501 ft 122 kts 279°
2026-05-07 15:01 52.77691 173.58252 8501 ft 122 kts 279°
2026-05-07 15:01 52.77880 173.56890 8501 ft 122 kts 279°
2026-05-07 15:01 52.78070 173.55527 8501 ft 122 kts 279°
2026-05-07 15:02 52.78258 173.54165 8501 ft 122 kts 279°
2026-05-07 15:02 52.78447 173.52800 8501 ft 122 kts 280°
2026-05-07 15:02 52.78637 173.51430 8501 ft 122 kts 279°
2026-05-07 15:02 52.78829 173.50042 8501 ft 123 kts 279°
2026-05-07 15:03 52.79018 173.48673 8501 ft 123 kts 279°
2026-05-07 15:03 52.79208 173.47298 8501 ft 123 kts 279°
2026-05-07 15:03 52.79397 173.45925 8501 ft 123 kts 279°
2026-05-07 15:03 52.79586 173.44552 8501 ft 123 kts 279°
2026-05-07 15:04 52.79775 173.43180 8501 ft 123 kts 279°
2026-05-07 15:04 52.79964 173.41805 8501 ft 123 kts 279°
2026-05-07 15:04 52.80153 173.40428 8501 ft 123 kts 279°
2026-05-07 15:04 52.80342 173.39053 8501 ft 123 kts 279°
2026-05-07 15:05 52.80531 173.37673 8501 ft 123 kts 279°
2026-05-07 15:05 52.80720 173.36296 8501 ft 123 kts 279°
2026-05-07 15:05 52.80908 173.34919 8501 ft 123 kts 279°
2026-05-07 15:05 52.81097 173.33539 8501 ft 123 kts 279°
2026-05-07 15:06 52.81285 173.32158 8501 ft 123 kts 279°
2026-05-07 15:06 52.81476 173.30758 8501 ft 123 kts 279°
2026-05-07 15:06 52.81664 173.29379 8501 ft 123 kts 279°
2026-05-07 15:06 52.81852 173.27996 8501 ft 123 kts 279°
2026-05-07 15:07 52.82040 173.26612 8501 ft 123 kts 279°
2026-05-07 15:07 52.82228 173.25229 8501 ft 124 kts 279°
2026-05-07 15:07 52.82415 173.23848 8501 ft 123 kts 279°
2026-05-07 15:07 52.82602 173.22464 8501 ft 123 kts 279°
2026-05-07 15:08 52.82788 173.21083 8501 ft 123 kts 279°
2026-05-07 15:08 52.82974 173.19699 8501 ft 123 kts 279°
2026-05-07 15:08 52.83158 173.18314 8501 ft 123 kts 278°
2026-05-07 15:08 52.83330 173.16928 8501 ft 123 kts 277°
2026-05-07 15:09 52.83494 173.15541 8501 ft 123 kts 277°
2026-05-07 15:09 52.83658 173.14129 8501 ft 123 kts 277°
2026-05-07 15:09 52.83817 173.12739 8501 ft 123 kts 277°
2026-05-07 15:09 52.83976 173.11347 8500 ft 123 kts 277°
2026-05-07 15:10 52.84134 173.09955 8501 ft 123 kts 277°
2026-05-07 15:10 52.84292 173.08562 8501 ft 123 kts 277°
2026-05-07 15:10 52.84450 173.07168 8501 ft 124 kts 277°
2026-05-07 15:10 52.84608 173.05773 8500 ft 124 kts 277°
2026-05-07 15:11 52.84765 173.04379 8500 ft 124 kts 277°
2026-05-07 15:11 52.84923 173.02980 8501 ft 124 kts 277°
2026-05-07 15:11 52.85080 173.01585 8500 ft 124 kts 277°
2026-05-07 15:11 52.85237 173.00189 8500 ft 124 kts 277°
2026-05-07 15:12 52.85395 172.98789 8500 ft 124 kts 277°
2026-05-07 15:12 52.85552 172.97391 8500 ft 124 kts 277°
2026-05-07 15:12 52.85657 172.96447 8500 ft 124 kts 277°
2026-05-07 15:12 52.85865 172.94591 8501 ft 124 kts 277°
2026-05-07 15:13 52.85971 172.93646 8501 ft 124 kts 277°
2026-05-07 15:13 52.86128 172.92245 8500 ft 124 kts 277°
2026-05-07 15:13 52.86284 172.90842 8500 ft 124 kts 277°
2026-05-07 15:13 52.86441 172.89443 8501 ft 124 kts 277°
2026-05-07 15:14 52.86597 172.88039 8501 ft 124 kts 276°
2026-05-07 15:14 52.86753 172.86635 8500 ft 124 kts 276°
2026-05-07 15:14 52.86909 172.85231 8501 ft 124 kts 276°
2026-05-07 15:14 52.87065 172.83826 8500 ft 124 kts 276°
2026-05-07 15:15 52.87221 172.82421 8500 ft 124 kts 276°
2026-05-07 15:15 52.87379 172.80994 8501 ft 124 kts 276°
2026-05-07 15:15 52.87535 172.79588 8501 ft 124 kts 276°
2026-05-07 15:15 52.87690 172.78182 8502 ft 124 kts 277°
2026-05-07 15:16 52.87844 172.76784 8509 ft 123 kts 277°
2026-05-07 15:16 52.87997 172.75398 8510 ft 123 kts 277°
2026-05-07 15:16 52.88149 172.74012 8510 ft 122 kts 277°
2026-05-07 15:16 52.88301 172.72628 8510 ft 122 kts 277°
2026-05-07 15:17 52.88453 172.71247 8510 ft 122 kts 277°
2026-05-07 15:17 52.88605 172.69865 8510 ft 122 kts 277°
2026-05-07 15:17 52.88757 172.68479 8511 ft 122 kts 277°
2026-05-07 15:17 52.88908 172.67097 8511 ft 122 kts 277°
2026-05-07 15:18 52.89059 172.65713 8510 ft 122 kts 277°
2026-05-07 15:18 52.89213 172.64306 8510 ft 122 kts 277°
2026-05-07 15:18 52.89364 172.62923 8510 ft 122 kts 277°
2026-05-07 15:18 52.89515 172.61538 8511 ft 123 kts 277°
2026-05-07 15:19 52.89666 172.60149 8510 ft 123 kts 276°
2026-05-07 15:19 52.89816 172.58762 8510 ft 123 kts 276°
2026-05-07 15:19 52.89967 172.57374 8510 ft 123 kts 276°
2026-05-07 15:19 52.90117 172.55986 8511 ft 123 kts 276°
2026-05-07 15:20 52.90267 172.54599 8511 ft 123 kts 276°
2026-05-07 15:20 52.90418 172.53209 8511 ft 123 kts 276°
2026-05-07 15:20 52.90567 172.51820 8511 ft 123 kts 276°
2026-05-07 15:20 52.90717 172.50429 8511 ft 123 kts 276°
2026-05-07 15:21 52.90867 172.49037 8511 ft 123 kts 276°
2026-05-07 15:21 52.91015 172.47647 8511 ft 123 kts 276°
2026-05-07 15:21 52.91164 172.46255 8511 ft 123 kts 276°
2026-05-07 15:21 52.91314 172.44844 8511 ft 123 kts 276°
2026-05-07 15:22 52.91460 172.43454 8511 ft 123 kts 276°
2026-05-07 15:22 52.91614 172.42065 8511 ft 123 kts 277°
2026-05-07 15:22 52.91800 172.40681 8511 ft 123 kts 278°
2026-05-07 15:22 52.91992 172.39301 8511 ft 123 kts 279°
2026-05-07 15:23 52.92184 172.37919 8511 ft 123 kts 278°
2026-05-07 15:23 52.92376 172.36535 8511 ft 123 kts 278°
2026-05-07 15:23 52.92567 172.35151 8511 ft 123 kts 278°
2026-05-07 15:23 52.92759 172.33766 8511 ft 123 kts 278°
2026-05-07 15:24 52.92950 172.32380 8511 ft 124 kts 278°
2026-05-07 15:24 52.93141 172.30994 8511 ft 124 kts 278°
2026-05-07 15:24 52.93332 172.29608 8511 ft 124 kts 278°
2026-05-07 15:24 52.93523 172.28219 8511 ft 124 kts 278°
2026-05-07 15:25 52.93716 172.26812 8511 ft 124 kts 278°
2026-05-07 15:25 52.93907 172.25425 8511 ft 124 kts 278°
2026-05-07 15:25 52.94098 172.24034 8511 ft 124 kts 278°
2026-05-07 15:25 52.94288 172.22644 8511 ft 124 kts 278°
2026-05-07 15:26 52.94479 172.21253 8511 ft 124 kts 278°
2026-05-07 15:26 52.94669 172.19863 8511 ft 124 kts 278°
2026-05-07 15:26 52.94859 172.18470 8511 ft 124 kts 278°
2026-05-07 15:26 52.95049 172.17078 8512 ft 124 kts 278°
2026-05-07 15:27 52.95239 172.15688 8511 ft 124 kts 278°
2026-05-07 15:27 52.95428 172.14297 8511 ft 124 kts 278°
2026-05-07 15:27 52.95621 172.12885 8511 ft 124 kts 278°
2026-05-07 15:27 52.95810 172.11490 8511 ft 124 kts 278°
2026-05-07 15:28 52.96000 172.10097 8512 ft 124 kts 278°
2026-05-07 15:28 52.96189 172.08702 8512 ft 124 kts 278°
2026-05-07 15:28 52.96378 172.07307 8511 ft 124 kts 278°
2026-05-07 15:28 52.96568 172.05909 8511 ft 124 kts 278°
2026-05-07 15:29 52.96757 172.04513 8512 ft 124 kts 278°
2026-05-07 15:29 52.96945 172.03117 8512 ft 124 kts 278°
2026-05-07 15:29 52.97134 172.01720 8512 ft 124 kts 278°
2026-05-07 15:29 52.97323 172.00321 8512 ft 124 kts 278°
2026-05-07 15:30 52.97511 171.98926 8512 ft 124 kts 278°
2026-05-07 15:30 52.97697 171.97542 8513 ft 122 kts 279°
2026-05-07 15:30 52.97884 171.96152 8512 ft 121 kts 279°
2026-05-07 15:30 52.98067 171.94792 8512 ft 121 kts 278°
2026-05-07 15:31 52.98248 171.93436 8512 ft 120 kts 278°
2026-05-07 15:31 52.98429 171.92086 8511 ft 120 kts 278°
2026-05-07 15:31 52.98610 171.90737 8511 ft 120 kts 278°
2026-05-07 15:31 52.98790 171.89390 8511 ft 120 kts 278°
2026-05-07 15:32 52.98970 171.88041 8511 ft 120 kts 278°
2026-05-07 15:32 52.99150 171.86697 8509 ft 120 kts 278°
2026-05-07 15:32 52.99330 171.85345 8503 ft 120 kts 278°
2026-05-07 15:32 52.99511 171.83994 8501 ft 120 kts 278°
2026-05-07 15:33 52.99691 171.82643 8501 ft 120 kts 278°
2026-05-07 15:33 52.99871 171.81293 8501 ft 120 kts 278°
2026-05-07 15:33 53.00050 171.79946 8501 ft 120 kts 278°
2026-05-07 15:33 53.00229 171.78598 8500 ft 120 kts 278°
2026-05-07 15:34 53.00408 171.77250 8500 ft 120 kts 278°
2026-05-07 15:34 53.00589 171.75886 8500 ft 120 kts 278°
2026-05-07 15:34 53.00768 171.74539 8500 ft 120 kts 278°
2026-05-07 15:34 53.00946 171.73193 8500 ft 120 kts 278°
2026-05-07 15:35 53.01124 171.71846 8500 ft 120 kts 278°
2026-05-07 15:35 53.01302 171.70500 8500 ft 120 kts 278°
2026-05-07 15:35 53.01480 171.69153 8500 ft 120 kts 278°
2026-05-07 15:35 53.01658 171.67804 8500 ft 120 kts 278°
2026-05-07 15:36 53.01836 171.66457 8500 ft 120 kts 278°
2026-05-07 15:36 53.02014 171.65106 8500 ft 120 kts 278°
2026-05-07 15:36 53.02191 171.63760 8500 ft 120 kts 278°
2026-05-07 15:36 53.02368 171.62411 8500 ft 120 kts 278°
2026-05-07 15:37 53.02545 171.61061 8500 ft 120 kts 278°
2026-05-07 15:37 53.02725 171.59695 8500 ft 120 kts 278°
2026-05-07 15:37 53.02902 171.58344 8501 ft 120 kts 278°
2026-05-07 15:37 53.03078 171.56997 8500 ft 120 kts 278°
2026-05-07 15:38 53.03255 171.55649 8501 ft 120 kts 278°
2026-05-07 15:38 53.03431 171.54296 8500 ft 120 kts 278°
2026-05-07 15:38 53.03607 171.52949 8500 ft 120 kts 278°
2026-05-07 15:38 53.03784 171.51597 8501 ft 120 kts 278°
2026-05-07 15:39 53.03960 171.50246 8501 ft 120 kts 278°
2026-05-07 15:39 53.04136 171.48897 8501 ft 120 kts 278°
2026-05-07 15:39 53.04311 171.47547 8500 ft 120 kts 278°
2026-05-07 15:39 53.04486 171.46198 8501 ft 120 kts 278°
2026-05-07 15:40 53.04662 171.44847 8501 ft 120 kts 278°
2026-05-07 15:40 53.04837 171.43497 8500 ft 120 kts 278°
2026-05-07 15:40 53.05012 171.42145 8501 ft 120 kts 278°
2026-05-07 15:40 53.05189 171.40777 8501 ft 120 kts 278°
2026-05-07 15:41 53.05364 171.39427 8501 ft 120 kts 278°
2026-05-07 15:41 53.05539 171.38076 8500 ft 120 kts 278°
2026-05-07 15:41 53.05713 171.36725 8501 ft 120 kts 278°
2026-05-07 15:41 53.05887 171.35373 8501 ft 120 kts 278°
2026-05-07 15:42 53.06062 171.34021 8501 ft 120 kts 278°
2026-05-07 15:42 53.06235 171.32671 8501 ft 120 kts 278°
2026-05-07 15:42 53.06409 171.31318 8501 ft 120 kts 278°
2026-05-07 15:42 53.06583 171.29969 8501 ft 120 kts 278°
2026-05-07 15:43 53.06757 171.28614 8501 ft 120 kts 278°
2026-05-07 15:43 53.06930 171.27261 8501 ft 120 kts 278°
2026-05-07 15:43 53.07103 171.25911 8501 ft 120 kts 278°
2026-05-07 15:43 53.07276 171.24559 8501 ft 120 kts 278°
2026-05-07 15:44 53.07449 171.23206 8501 ft 120 kts 278°
2026-05-07 15:44 53.07624 171.21837 8501 ft 120 kts 278°
2026-05-07 15:44 53.07797 171.20486 8501 ft 120 kts 278°
2026-05-07 15:44 53.07969 171.19130 8501 ft 120 kts 278°
2026-05-07 15:45 53.08142 171.17778 8501 ft 120 kts 278°
2026-05-07 15:45 53.08314 171.16426 8501 ft 120 kts 278°
2026-05-07 15:45 53.08486 171.15074 8501 ft 120 kts 278°
2026-05-07 15:45 53.08657 171.13722 8501 ft 120 kts 278°
2026-05-07 15:46 53.09001 171.11014 8501 ft 120 kts 278°
2026-05-07 15:46 53.09172 171.09661 8501 ft 120 kts 278°
2026-05-07 15:46 53.09343 171.08309 8501 ft 120 kts 278°
2026-05-07 15:47 53.09514 171.06956 8501 ft 120 kts 278°
2026-05-07 15:47 53.09687 171.05586 8501 ft 120 kts 278°
2026-05-07 15:47 53.09858 171.04232 8501 ft 120 kts 278°
2026-05-07 15:47 53.10028 171.02883 8501 ft 120 kts 278°
2026-05-07 15:48 53.10198 171.01529 8501 ft 120 kts 278°
2026-05-07 15:48 53.10368 171.00176 8501 ft 120 kts 278°
2026-05-07 15:48 53.10538 170.98824 8501 ft 120 kts 278°
2026-05-07 15:48 53.10708 170.97474 8501 ft 120 kts 278°
2026-05-07 15:49 53.10877 170.96122 8501 ft 119 kts 278°
2026-05-07 15:49 53.11047 170.94769 8501 ft 119 kts 278°
2026-05-07 15:49 53.11216 170.93419 8501 ft 119 kts 278°
2026-05-07 15:49 53.11385 170.92066 8501 ft 119 kts 278°
2026-05-07 15:50 53.11553 170.90715 8501 ft 119 kts 278°
2026-05-07 15:50 53.11722 170.89362 8501 ft 119 kts 278°
2026-05-07 15:50 53.11893 170.87993 8501 ft 119 kts 278°
2026-05-07 15:50 53.12061 170.86641 8501 ft 119 kts 278°
2026-05-07 15:51 53.12229 170.85289 8501 ft 119 kts 278°
2026-05-07 15:51 53.12397 170.83940 8501 ft 119 kts 278°
2026-05-07 15:51 53.12565 170.82587 8501 ft 119 kts 278°
2026-05-07 15:51 53.12732 170.81238 8501 ft 119 kts 278°
2026-05-07 15:52 53.12900 170.79886 8501 ft 119 kts 278°
2026-05-07 15:52 53.13067 170.78537 8501 ft 119 kts 278°
2026-05-07 15:52 53.13234 170.77182 8501 ft 119 kts 278°
2026-05-07 15:52 53.13401 170.75835 8501 ft 119 kts 278°
2026-05-07 15:53 53.13568 170.74483 8501 ft 119 kts 278°
2026-05-07 15:53 53.13734 170.73134 8501 ft 119 kts 278°
2026-05-07 15:53 53.13900 170.71783 8501 ft 119 kts 278°
2026-05-07 15:53 53.14069 170.70415 8501 ft 119 kts 278°
2026-05-07 15:54 53.14234 170.69066 8501 ft 119 kts 278°
2026-05-07 15:54 53.14400 170.67716 8501 ft 119 kts 278°
2026-05-07 15:54 53.14566 170.66365 8502 ft 119 kts 278°
2026-05-07 15:54 53.14731 170.65016 8501 ft 119 kts 278°
2026-05-07 15:55 53.14896 170.63669 8501 ft 119 kts 278°
2026-05-07 15:55 53.15061 170.62318 8502 ft 119 kts 278°
2026-05-07 15:55 53.15226 170.60968 8502 ft 119 kts 278°
2026-05-07 15:55 53.15391 170.59621 8501 ft 119 kts 278°
2026-05-07 15:56 53.15555 170.58271 8502 ft 119 kts 278°
2026-05-07 15:56 53.15720 170.56922 8502 ft 119 kts 278°
2026-05-07 15:56 53.15884 170.55574 8502 ft 119 kts 278°
2026-05-07 15:56 53.16048 170.54224 8501 ft 119 kts 278°
2026-05-07 15:57 53.16214 170.52857 8502 ft 119 kts 278°
2026-05-07 15:57 53.16377 170.51510 8502 ft 119 kts 278°
2026-05-07 15:57 53.16541 170.50159 8501 ft 119 kts 278°
2026-05-07 15:57 53.16704 170.48811 8501 ft 119 kts 278°
2026-05-07 15:58 53.16867 170.47464 8502 ft 119 kts 278°
2026-05-07 15:58 53.17030 170.46114 8502 ft 119 kts 278°
2026-05-07 15:58 53.17193 170.44768 8502 ft 119 kts 278°
2026-05-07 15:58 53.17355 170.43419 8502 ft 119 kts 278°
2026-05-07 15:59 53.17518 170.42071 8502 ft 119 kts 278°
2026-05-07 15:59 53.17680 170.40724 8502 ft 119 kts 278°
2026-05-07 15:59 53.17842 170.39378 8502 ft 119 kts 278°
2026-05-07 15:59 53.18004 170.38028 8502 ft 119 kts 278°
2026-05-07 16:00 53.18167 170.36662 8502 ft 119 kts 278°
2026-05-07 16:00 53.18329 170.35314 8501 ft 119 kts 278°
2026-05-07 16:00 53.18490 170.33967 8501 ft 119 kts 278°
2026-05-07 16:00 53.18651 170.32620 8501 ft 119 kts 278°
2026-05-07 16:01 53.18812 170.31274 8501 ft 119 kts 278°
2026-05-07 16:01 53.18973 170.29925 8501 ft 119 kts 278°
2026-05-07 16:01 53.19134 170.28577 8501 ft 119 kts 278°
2026-05-07 16:01 53.19294 170.27230 8501 ft 119 kts 278°
2026-05-07 16:02 53.19454 170.25884 8501 ft 119 kts 278°
2026-05-07 16:02 53.19615 170.24536 8501 ft 119 kts 278°
2026-05-07 16:02 53.19775 170.23188 8502 ft 119 kts 278°
2026-05-07 16:02 53.19935 170.21839 8501 ft 119 kts 278°
2026-05-07 16:03 53.20094 170.20494 8501 ft 119 kts 278°
2026-05-07 16:03 53.20256 170.19129 8501 ft 119 kts 278°
2026-05-07 16:03 53.20415 170.17780 8501 ft 119 kts 278°
2026-05-07 16:03 53.20574 170.16433 8501 ft 119 kts 278°
2026-05-07 16:04 53.20733 170.15087 8501 ft 119 kts 278°
2026-05-07 16:04 53.20892 170.13741 8501 ft 119 kts 278°
2026-05-07 16:04 53.21050 170.12393 8501 ft 119 kts 278°
2026-05-07 16:04 53.21209 170.11044 8501 ft 119 kts 278°
2026-05-07 16:05 53.21367 170.09698 8501 ft 119 kts 278°
2026-05-07 16:05 53.21525 170.08349 8501 ft 119 kts 278°
2026-05-07 16:05 53.21683 170.07002 8501 ft 119 kts 278°
2026-05-07 16:05 53.21841 170.05655 8501 ft 119 kts 278°
2026-05-07 16:06 53.21999 170.04308 8501 ft 119 kts 278°
2026-05-07 16:06 53.22156 170.02960 8501 ft 119 kts 278°
2026-05-07 16:06 53.22262 170.02050 8501 ft 118 kts 278°
2026-05-07 16:06 53.22470 170.00264 8501 ft 118 kts 278°
2026-05-07 16:07 53.22576 169.99357 8501 ft 118 kts 278°
2026-05-07 16:07 53.22731 169.98017 8501 ft 117 kts 278°
2026-05-07 16:07 53.22885 169.96690 8501 ft 116 kts 278°
2026-05-07 16:07 53.23038 169.95369 8501 ft 116 kts 278°
2026-05-07 16:08 53.23190 169.94051 8501 ft 116 kts 278°
2026-05-07 16:08 53.23342 169.92737 8501 ft 116 kts 278°
2026-05-07 16:08 53.23494 169.91423 8500 ft 115 kts 278°
2026-05-07 16:08 53.23648 169.90091 8500 ft 115 kts 278°
2026-05-07 16:09 53.23799 169.88777 8500 ft 115 kts 278°
2026-05-07 16:09 53.23950 169.87465 8500 ft 115 kts 278°
2026-05-07 16:09 53.24101 169.86152 8500 ft 115 kts 278°
2026-05-07 16:09 53.24252 169.84840 8500 ft 115 kts 278°
2026-05-07 16:10 53.24403 169.83528 8500 ft 115 kts 278°
2026-05-07 16:10 53.24553 169.82216 8500 ft 115 kts 278°
2026-05-07 16:10 53.24703 169.80902 8500 ft 115 kts 278°
2026-05-07 16:10 53.24853 169.79589 8500 ft 115 kts 278°
2026-05-07 16:11 53.25002 169.78275 8500 ft 115 kts 278°
2026-05-07 16:11 53.25151 169.76965 8500 ft 115 kts 278°
2026-05-07 16:11 53.25300 169.75650 8500 ft 115 kts 278°
2026-05-07 16:11 53.25448 169.74337 8500 ft 115 kts 278°
2026-05-07 16:12 53.25596 169.73007 8500 ft 115 kts 278°
2026-05-07 16:12 53.25741 169.71692 8500 ft 115 kts 277°
2026-05-07 16:12 53.25882 169.70375 8500 ft 115 kts 277°
2026-05-07 16:12 53.25995 169.69057 8500 ft 115 kts 274°
2026-05-07 16:13 53.26074 169.67734 8500 ft 115 kts 273°
2026-05-07 16:13 53.26139 169.66406 8500 ft 115 kts 272°
2026-05-07 16:13 53.26196 169.65080 8500 ft 115 kts 272°
2026-05-07 16:13 53.26250 169.63754 8500 ft 115 kts 271°
2026-05-07 16:14 53.26301 169.62428 8500 ft 115 kts 271°
2026-05-07 16:14 53.26352 169.61102 8500 ft 115 kts 271°
2026-05-07 16:14 53.26402 169.59774 8500 ft 115 kts 271°
2026-05-07 16:14 53.26452 169.58446 8500 ft 115 kts 271°
2026-05-07 16:15 53.26502 169.57119 8500 ft 115 kts 271°
2026-05-07 16:15 53.26551 169.55792 8500 ft 115 kts 271°
2026-05-07 16:15 53.26601 169.54449 8500 ft 115 kts 271°
2026-05-07 16:15 53.26650 169.53123 8503 ft 114 kts 271°
2026-05-07 16:16 53.26698 169.51804 8512 ft 114 kts 271°
2026-05-07 16:16 53.26746 169.50485 8514 ft 114 kts 271°
2026-05-07 16:16 53.26795 169.49165 8515 ft 114 kts 271°
2026-05-07 16:16 53.26843 169.47844 8515 ft 114 kts 271°
2026-05-07 16:17 53.26891 169.46519 8515 ft 114 kts 271°
2026-05-07 16:17 53.26939 169.45197 8515 ft 114 kts 271°
2026-05-07 16:17 53.26987 169.43872 8516 ft 114 kts 271°
2026-05-07 16:17 53.27035 169.42546 8516 ft 115 kts 271°
2026-05-07 16:18 53.27083 169.41221 8516 ft 115 kts 271°
2026-05-07 16:18 53.27130 169.39895 8515 ft 115 kts 271°
2026-05-07 16:18 53.27178 169.38550 8515 ft 115 kts 271°
2026-05-07 16:18 53.27226 169.37227 8515 ft 114 kts 271°
2026-05-07 16:19 53.27272 169.35903 8515 ft 114 kts 271°
2026-05-07 16:19 53.27319 169.34584 8515 ft 114 kts 271°
2026-05-07 16:19 53.27365 169.33266 8515 ft 114 kts 271°
2026-05-07 16:19 53.27411 169.31950 8515 ft 114 kts 271°
2026-05-07 16:20 53.27457 169.30633 8515 ft 114 kts 271°
2026-05-07 16:20 53.27503 169.29320 8515 ft 114 kts 271°
2026-05-07 16:20 53.27549 169.28003 8515 ft 114 kts 271°
2026-05-07 16:20 53.27594 169.26688 8514 ft 114 kts 271°
2026-05-07 16:21 53.27640 169.25373 8515 ft 114 kts 271°
2026-05-07 16:21 53.27685 169.24057 8514 ft 114 kts 271°
2026-05-07 16:21 53.27730 169.22743 8514 ft 114 kts 271°
2026-05-07 16:21 53.27776 169.21411 8514 ft 114 kts 271°
2026-05-07 16:22 53.27821 169.20097 8514 ft 114 kts 271°
2026-05-07 16:22 53.27865 169.18781 8514 ft 114 kts 271°
2026-05-07 16:22 53.27910 169.17469 8514 ft 114 kts 271°
2026-05-07 16:22 53.27954 169.16155 8514 ft 114 kts 271°
2026-05-07 16:23 53.27999 169.14838 8514 ft 113 kts 271°
2026-05-07 16:23 53.28043 169.13523 8514 ft 113 kts 271°
2026-05-07 16:23 53.28087 169.12210 8514 ft 113 kts 271°
2026-05-07 16:23 53.28131 169.10897 8514 ft 113 kts 271°
2026-05-07 16:24 53.28174 169.09583 8514 ft 113 kts 271°
2026-05-07 16:24 53.28218 169.08267 8514 ft 113 kts 271°
2026-05-07 16:24 53.28261 169.06953 8513 ft 113 kts 271°
2026-05-07 16:24 53.28305 169.05641 8513 ft 113 kts 271°
2026-05-07 16:25 53.28348 169.04324 8514 ft 113 kts 271°
2026-05-07 16:25 53.28391 169.02992 8513 ft 113 kts 271°
2026-05-07 16:25 53.28434 169.01681 8513 ft 113 kts 271°
2026-05-07 16:25 53.28477 169.00365 8513 ft 113 kts 271°
2026-05-07 16:26 53.28519 168.99051 8513 ft 113 kts 271°
2026-05-07 16:26 53.28561 168.97739 8513 ft 113 kts 271°
2026-05-07 16:26 53.28604 168.96425 8513 ft 113 kts 271°
2026-05-07 16:26 53.28646 168.95110 8513 ft 113 kts 271°
2026-05-07 16:27 53.28688 168.93798 8513 ft 113 kts 271°
2026-05-07 16:27 53.28729 168.92483 8512 ft 113 kts 271°
2026-05-07 16:27 53.28771 168.91170 8513 ft 113 kts 271°
2026-05-07 16:27 53.28812 168.89856 8513 ft 113 kts 271°
2026-05-07 16:28 53.28854 168.88545 8512 ft 113 kts 271°
2026-05-07 16:28 53.28895 168.87219 8512 ft 113 kts 271°
2026-05-07 16:28 53.28936 168.85913 8511 ft 113 kts 271°
2026-05-07 16:28 53.28976 168.84609 8511 ft 112 kts 271°
2026-05-07 16:29 53.29016 168.83307 8511 ft 112 kts 271°
2026-05-07 16:29 53.29056 168.82006 8511 ft 112 kts 271°
2026-05-07 16:29 53.29096 168.80706 8511 ft 112 kts 271°
2026-05-07 16:29 53.29136 168.79406 8512 ft 112 kts 271°
2026-05-07 16:30 53.29175 168.78104 8512 ft 112 kts 271°
2026-05-07 16:30 53.29215 168.76803 8511 ft 112 kts 271°
2026-05-07 16:30 53.29254 168.75504 8511 ft 112 kts 271°
2026-05-07 16:30 53.29294 168.74201 8511 ft 112 kts 271°
2026-05-07 16:31 53.29333 168.72900 8511 ft 112 kts 271°
2026-05-07 16:31 53.29372 168.71599 8511 ft 112 kts 271°
2026-05-07 16:31 53.29411 168.70280 8511 ft 112 kts 271°
2026-05-07 16:31 53.29450 168.68976 8511 ft 112 kts 271°
2026-05-07 16:32 53.29489 168.67674 8511 ft 112 kts 271°
2026-05-07 16:32 53.29527 168.66374 8511 ft 112 kts 271°
2026-05-07 16:32 53.29565 168.65075 8511 ft 112 kts 271°
2026-05-07 16:32 53.29603 168.63773 8511 ft 112 kts 271°
2026-05-07 16:33 53.29641 168.62471 8510 ft 112 kts 271°
2026-05-07 16:33 53.29679 168.61169 8510 ft 112 kts 271°
2026-05-07 16:33 53.29716 168.59868 8510 ft 112 kts 271°
2026-05-07 16:33 53.29754 168.58569 8510 ft 112 kts 271°
2026-05-07 16:34 53.29791 168.57267 8510 ft 112 kts 271°
2026-05-07 16:34 53.29828 168.55965 8510 ft 112 kts 271°
2026-05-07 16:34 53.29865 168.54663 8510 ft 112 kts 271°
2026-05-07 16:34 53.29902 168.53360 8510 ft 112 kts 271°
2026-05-07 16:35 53.29939 168.52044 8510 ft 112 kts 271°
2026-05-07 16:35 53.29975 168.50742 8510 ft 112 kts 271°
2026-05-07 16:35 53.30011 168.49438 8510 ft 112 kts 271°
2026-05-07 16:35 53.30047 168.48138 8509 ft 112 kts 271°
2026-05-07 16:36 53.30082 168.46838 8509 ft 112 kts 271°
2026-05-07 16:36 53.30117 168.45536 8509 ft 112 kts 271°
2026-05-07 16:36 53.30152 168.44236 8509 ft 112 kts 271°
2026-05-07 16:36 53.30187 168.42933 8509 ft 112 kts 271°
2026-05-07 16:37 53.30221 168.41633 8509 ft 112 kts 271°
2026-05-07 16:37 53.30254 168.40331 8509 ft 112 kts 271°
2026-05-07 16:37 53.30286 168.39029 8509 ft 112 kts 271°
2026-05-07 16:37 53.30316 168.37728 8509 ft 112 kts 271°
2026-05-07 16:38 53.30344 168.36426 8508 ft 112 kts 270°
2026-05-07 16:38 53.30377 168.35109 8508 ft 112 kts 274°
2026-05-07 16:38 53.30498 168.33816 8508 ft 113 kts 278°
2026-05-07 16:38 53.30634 168.32529 8508 ft 113 kts 278°
2026-05-07 16:39 53.30767 168.31238 8508 ft 113 kts 277°
2026-05-07 16:39 53.30898 168.29949 8508 ft 113 kts 277°
2026-05-07 16:39 53.31028 168.28659 8508 ft 113 kts 277°
2026-05-07 16:39 53.31158 168.27370 8508 ft 113 kts 277°
2026-05-07 16:40 53.31287 168.26080 8507 ft 113 kts 277°
2026-05-07 16:40 53.31417 168.24789 8507 ft 113 kts 277°
2026-05-07 16:40 53.31545 168.23501 8507 ft 112 kts 277°
2026-05-07 16:40 53.31674 168.22215 8507 ft 112 kts 277°
2026-05-07 16:41 53.31801 168.20930 8507 ft 112 kts 277°
2026-05-07 16:41 53.31930 168.19633 8507 ft 112 kts 277°
2026-05-07 16:41 53.32057 168.18351 8507 ft 112 kts 277°
2026-05-07 16:41 53.32184 168.17071 8507 ft 112 kts 277°
2026-05-07 16:42 53.32312 168.15789 8506 ft 112 kts 277°
2026-05-07 16:42 53.32438 168.14510 8506 ft 112 kts 277°
2026-05-07 16:42 53.32565 168.13232 8506 ft 112 kts 277°
2026-05-07 16:42 53.32691 168.11950 8506 ft 112 kts 277°
2026-05-07 16:43 53.32817 168.10673 8506 ft 112 kts 277°
2026-05-07 16:43 53.32944 168.09393 8506 ft 112 kts 277°
2026-05-07 16:43 53.33070 168.08111 8506 ft 112 kts 277°
2026-05-07 16:43 53.33196 168.06833 8506 ft 112 kts 277°
2026-05-07 16:44 53.33322 168.05550 8506 ft 112 kts 277°
2026-05-07 16:44 53.33447 168.04274 8505 ft 112 kts 277°
2026-05-07 16:44 53.33573 168.02992 8505 ft 112 kts 277°
2026-05-07 16:44 53.33700 168.01694 8505 ft 112 kts 277°
2026-05-07 16:45 53.33825 168.00415 8505 ft 112 kts 277°
2026-05-07 16:45 53.33950 167.99136 8505 ft 111 kts 277°
2026-05-07 16:45 53.34075 167.97860 8505 ft 111 kts 277°
2026-05-07 16:45 53.34199 167.96585 8505 ft 111 kts 277°
2026-05-07 16:46 53.34322 167.95316 8504 ft 111 kts 277°
2026-05-07 16:46 53.34445 167.94047 8504 ft 111 kts 277°
2026-05-07 16:46 53.34569 167.92776 8504 ft 111 kts 277°
2026-05-07 16:46 53.34692 167.91508 8504 ft 111 kts 277°
2026-05-07 16:47 53.34815 167.90238 8504 ft 111 kts 277°
2026-05-07 16:47 53.34937 167.88971 8504 ft 111 kts 277°
2026-05-07 16:47 53.35060 167.87701 8504 ft 111 kts 277°
2026-05-07 16:47 53.35183 167.86433 8503 ft 111 kts 277°
2026-05-07 16:48 53.35307 167.85148 8503 ft 111 kts 277°
2026-05-07 16:48 53.35429 167.83878 8503 ft 111 kts 277°
2026-05-07 16:48 53.35551 167.82611 8503 ft 111 kts 277°
2026-05-07 16:48 53.35673 167.81340 8503 ft 111 kts 277°
2026-05-07 16:49 53.35795 167.80071 8503 ft 111 kts 277°
2026-05-07 16:49 53.35917 167.78803 8503 ft 111 kts 277°
2026-05-07 16:49 53.36038 167.77535 8503 ft 111 kts 277°
2026-05-07 16:49 53.36160 167.76265 8502 ft 111 kts 277°
2026-05-07 16:50 53.36281 167.74994 8502 ft 111 kts 277°
2026-05-07 16:50 53.36402 167.73726 8502 ft 111 kts 277°
2026-05-07 16:50 53.36523 167.72458 8502 ft 111 kts 277°
2026-05-07 16:50 53.36644 167.71189 8502 ft 111 kts 277°
2026-05-07 16:51 53.36766 167.69901 8502 ft 111 kts 277°
2026-05-07 16:51 53.36886 167.68647 8502 ft 111 kts 277°
2026-05-07 16:51 53.37008 167.67363 8501 ft 111 kts 277°
2026-05-07 16:51 53.37128 167.66090 8501 ft 111 kts 277°
2026-05-07 16:52 53.37248 167.64821 8501 ft 111 kts 277°
2026-05-07 16:52 53.37368 167.63551 8501 ft 111 kts 277°
2026-05-07 16:52 53.37488 167.62280 8501 ft 111 kts 277°
2026-05-07 16:52 53.37608 167.61010 8501 ft 111 kts 277°
2026-05-07 16:53 53.37728 167.59739 8501 ft 111 kts 277°
2026-05-07 16:53 53.37847 167.58470 8501 ft 111 kts 277°
2026-05-07 16:53 53.37967 167.57197 8500 ft 111 kts 277°
2026-05-07 16:53 53.38086 167.55926 8500 ft 111 kts 277°
2026-05-07 16:54 53.38205 167.54657 8500 ft 111 kts 277°
2026-05-07 16:54 53.38324 167.53385 8500 ft 111 kts 277°
2026-05-07 16:54 53.38443 167.52112 8500 ft 111 kts 277°
2026-05-07 16:54 53.38563 167.50824 8500 ft 111 kts 277°
2026-05-07 16:55 53.38682 167.49553 8499 ft 111 kts 277°
2026-05-07 16:55 53.38800 167.48280 8499 ft 111 kts 277°
2026-05-07 16:55 53.38918 167.47008 8499 ft 111 kts 277°
2026-05-07 16:55 53.39036 167.45737 8499 ft 111 kts 277°
2026-05-07 16:56 53.39154 167.44464 8499 ft 111 kts 277°
2026-05-07 16:56 53.39272 167.43191 8499 ft 111 kts 277°
2026-05-07 16:56 53.39507 167.40646 8498 ft 111 kts 277°
2026-05-07 16:57 53.39624 167.39376 8498 ft 111 kts 277°
2026-05-07 16:57 53.39741 167.38103 8498 ft 111 kts 277°
2026-05-07 16:57 53.39858 167.36829 8498 ft 111 kts 277°
2026-05-07 16:57 53.39974 167.35557 8498 ft 111 kts 277°
2026-05-07 16:58 53.40092 167.34266 8497 ft 111 kts 276°
2026-05-07 16:58 53.40208 167.32994 8497 ft 111 kts 276°
2026-05-07 16:58 53.40324 167.31719 8497 ft 111 kts 276°
2026-05-07 16:58 53.40439 167.30448 8497 ft 111 kts 276°
2026-05-07 16:59 53.40553 167.29175 8497 ft 111 kts 276°
2026-05-07 16:59 53.40668 167.27898 8497 ft 111 kts 276°
2026-05-07 16:59 53.40781 167.26625 8497 ft 111 kts 276°
2026-05-07 16:59 53.40892 167.25350 8496 ft 111 kts 276°
2026-05-07 17:00 53.41001 167.24078 8496 ft 111 kts 276°
2026-05-07 17:00 53.41105 167.22801 8496 ft 111 kts 275°
2026-05-07 17:00 53.41188 167.21524 8496 ft 110 kts 273°
2026-05-07 17:00 53.41237 167.20240 8496 ft 110 kts 271°
2026-05-07 17:01 53.41259 167.19372 8495 ft 110 kts 271°
2026-05-07 17:01 53.41288 167.17673 8495 ft 110 kts 270°
2026-05-07 17:01 53.41299 167.16806 8495 ft 111 kts 270°
2026-05-07 17:01 53.41314 167.15517 8495 ft 111 kts 270°
2026-05-07 17:02 53.41327 167.14225 8495 ft 111 kts 270°
2026-05-07 17:02 53.41339 167.12934 8495 ft 111 kts 270°
2026-05-07 17:02 53.41351 167.11640 8495 ft 111 kts 270°
2026-05-07 17:02 53.41362 167.10347 8494 ft 111 kts 270°
2026-05-07 17:03 53.41373 167.09054 8494 ft 111 kts 270°
2026-05-07 17:03 53.41384 167.07758 8494 ft 111 kts 270°
2026-05-07 17:03 53.41395 167.06448 8494 ft 111 kts 270°
2026-05-07 17:03 53.41405 167.05151 8494 ft 111 kts 270°
2026-05-07 17:04 53.41415 167.03856 8493 ft 111 kts 270°
2026-05-07 17:04 53.41426 167.02562 8494 ft 111 kts 270°
2026-05-07 17:04 53.41436 167.01267 8493 ft 111 kts 270°
2026-05-07 17:04 53.41446 166.99970 8493 ft 111 kts 270°
2026-05-07 17:05 53.41455 166.98674 8493 ft 111 kts 270°
2026-05-07 17:05 53.41465 166.97379 8493 ft 111 kts 270°
2026-05-07 17:05 53.41475 166.96084 8493 ft 111 kts 269°
2026-05-07 17:05 53.41484 166.94789 8492 ft 111 kts 270°
2026-05-07 17:06 53.41493 166.93492 8492 ft 111 kts 269°
2026-05-07 17:06 53.41502 166.92197 8492 ft 111 kts 269°
2026-05-07 17:06 53.41511 166.90899 8492 ft 111 kts 269°
2026-05-07 17:06 53.41520 166.89604 8491 ft 111 kts 269°
2026-05-07 17:07 53.41529 166.88291 8491 ft 111 kts 269°
2026-05-07 17:07 53.41537 166.86995 8491 ft 111 kts 269°
2026-05-07 17:07 53.41545 166.85699 8491 ft 111 kts 269°
2026-05-07 17:07 53.41554 166.84404 8491 ft 111 kts 269°
2026-05-07 17:08 53.41562 166.83109 8491 ft 111 kts 269°
2026-05-07 17:08 53.41570 166.81813 8491 ft 111 kts 269°
2026-05-07 17:08 53.41577 166.80515 8490 ft 111 kts 269°
2026-05-07 17:08 53.41585 166.79219 8490 ft 111 kts 269°
2026-05-07 17:09 53.41593 166.77924 8490 ft 111 kts 269°
2026-05-07 17:09 53.41600 166.76625 8490 ft 112 kts 269°
2026-05-07 17:09 53.41608 166.75325 8489 ft 112 kts 269°
2026-05-07 17:09 53.41615 166.74020 8489 ft 112 kts 269°
2026-05-07 17:10 53.41623 166.72694 8489 ft 112 kts 269°
2026-05-07 17:10 53.41630 166.71406 8489 ft 112 kts 269°
2026-05-07 17:10 53.41637 166.70084 8489 ft 112 kts 269°
2026-05-07 17:10 53.41643 166.68776 8489 ft 112 kts 269°
2026-05-07 17:11 53.41650 166.67468 8488 ft 112 kts 269°
2026-05-07 17:11 53.41656 166.66161 8488 ft 112 kts 269°
2026-05-07 17:11 53.41662 166.64852 8488 ft 112 kts 269°
2026-05-07 17:11 53.41668 166.63543 8488 ft 112 kts 269°
2026-05-07 17:12 53.41674 166.62236 8488 ft 112 kts 269°
2026-05-07 17:12 53.41680 166.60926 8487 ft 112 kts 269°
2026-05-07 17:12 53.41686 166.59618 8487 ft 112 kts 269°
2026-05-07 17:12 53.41691 166.58310 8487 ft 112 kts 269°
2026-05-07 17:13 53.41696 166.57002 8487 ft 112 kts 269°
2026-05-07 17:13 53.41702 166.55691 8487 ft 112 kts 269°
2026-05-07 17:13 53.41707 166.54382 8487 ft 112 kts 269°
2026-05-07 17:13 53.41712 166.53057 8486 ft 112 kts 269°
2026-05-07 17:14 53.41716 166.51748 8486 ft 112 kts 269°
2026-05-07 17:14 53.41721 166.50439 8486 ft 112 kts 269°
2026-05-07 17:14 53.41725 166.49131 8486 ft 112 kts 269°
2026-05-07 17:14 53.41730 166.47823 8485 ft 112 kts 269°
2026-05-07 17:15 53.41734 166.46513 8485 ft 112 kts 269°
2026-05-07 17:15 53.41738 166.45204 8485 ft 113 kts 269°
2026-05-07 17:15 53.41742 166.43891 8484 ft 113 kts 269°
2026-05-07 17:15 53.41746 166.42576 8484 ft 113 kts 269°
2026-05-07 17:16 53.41750 166.41257 8484 ft 113 kts 269°
2026-05-07 17:16 53.41754 166.39940 8485 ft 113 kts 269°
2026-05-07 17:16 53.41757 166.38604 8487 ft 113 kts 269°
2026-05-07 17:16 53.41760 166.37301 8488 ft 113 kts 269°
2026-05-07 17:17 53.41763 166.35966 8488 ft 113 kts 269°
2026-05-07 17:17 53.41766 166.34647 8488 ft 113 kts 269°
2026-05-07 17:17 53.41769 166.33327 8488 ft 113 kts 269°
2026-05-07 17:17 53.41772 166.32007 8488 ft 113 kts 269°
2026-05-07 17:18 53.41774 166.30684 8487 ft 113 kts 269°
2026-05-07 17:18 53.41777 166.29363 8487 ft 114 kts 269°
2026-05-07 17:18 53.41779 166.28042 8487 ft 114 kts 269°
2026-05-07 17:18 53.41781 166.26721 8487 ft 114 kts 269°
2026-05-07 17:19 53.41783 166.25402 8486 ft 114 kts 269°
2026-05-07 17:19 53.41785 166.24080 8486 ft 114 kts 269°
2026-05-07 17:19 53.41786 166.22758 8486 ft 114 kts 269°
2026-05-07 17:19 53.41788 166.21438 8486 ft 114 kts 269°
2026-05-07 17:20 53.41789 166.20099 8485 ft 114 kts 269°
2026-05-07 17:20 53.41790 166.18777 8485 ft 114 kts 269°
2026-05-07 17:20 53.41791 166.17456 8481 ft 114 kts 269°
2026-05-07 17:20 53.41792 166.16129 8478 ft 114 kts 269°
2026-05-07 17:21 53.41793 166.14805 8477 ft 114 kts 269°
2026-05-07 17:21 53.41793 166.13479 8477 ft 114 kts 269°
2026-05-07 17:21 53.41794 166.12156 8477 ft 114 kts 269°
2026-05-07 17:21 53.41794 166.10835 8476 ft 114 kts 269°
2026-05-07 17:22 53.41794 166.09512 8476 ft 114 kts 269°
2026-05-07 17:22 53.41794 166.08192 8476 ft 114 kts 269°
2026-05-07 17:22 53.41794 166.06871 8476 ft 114 kts 269°
2026-05-07 17:22 53.41793 166.05546 8476 ft 114 kts 269°
2026-05-07 17:23 53.41793 166.04225 8475 ft 114 kts 269°
2026-05-07 17:23 53.41792 166.02885 8475 ft 114 kts 269°
2026-05-07 17:23 53.41791 166.01562 8475 ft 114 kts 269°
2026-05-07 17:23 53.41790 166.00240 8475 ft 114 kts 269°
2026-05-07 17:24 53.41789 165.98921 8475 ft 114 kts 269°
2026-05-07 17:24 53.41788 165.97598 8474 ft 114 kts 269°
2026-05-07 17:24 53.41787 165.96277 8474 ft 114 kts 269°
2026-05-07 17:24 53.41785 165.94955 8474 ft 114 kts 269°
2026-05-07 17:25 53.41783 165.93634 8474 ft 114 kts 269°
2026-05-07 17:25 53.41781 165.92312 8473 ft 114 kts 269°
2026-05-07 17:25 53.41779 165.90992 8473 ft 114 kts 269°
2026-05-07 17:25 53.41777 165.89672 8473 ft 114 kts 269°
2026-05-07 17:26 53.41775 165.88348 8473 ft 114 kts 269°
2026-05-07 17:26 53.41773 165.87010 8472 ft 114 kts 269°
2026-05-07 17:26 53.41770 165.85689 8472 ft 114 kts 269°
2026-05-07 17:26 53.41767 165.84369 8472 ft 114 kts 269°
2026-05-07 17:27 53.41765 165.83046 8472 ft 114 kts 269°
2026-05-07 17:27 53.41762 165.81725 8472 ft 114 kts 269°
2026-05-07 17:27 53.41758 165.80403 8471 ft 114 kts 269°
2026-05-07 17:27 53.41755 165.79084 8471 ft 114 kts 269°
2026-05-07 17:28 53.41752 165.77762 8471 ft 114 kts 269°
2026-05-07 17:28 53.41748 165.76440 8471 ft 114 kts 269°
2026-05-07 17:28 53.41744 165.75119 8470 ft 114 kts 269°
2026-05-07 17:28 53.41740 165.73797 8470 ft 114 kts 269°
2026-05-07 17:29 53.41736 165.72476 8470 ft 114 kts 269°
2026-05-07 17:29 53.41732 165.71155 8470 ft 114 kts 269°
2026-05-07 17:29 53.41728 165.69815 8470 ft 114 kts 269°
2026-05-07 17:29 53.41723 165.68496 8469 ft 114 kts 269°
2026-05-07 17:30 53.41719 165.67174 8469 ft 114 kts 269°
2026-05-07 17:30 53.41714 165.65854 8469 ft 114 kts 269°
2026-05-07 17:30 53.41709 165.64531 8469 ft 114 kts 269°
2026-05-07 17:30 53.41704 165.63210 8468 ft 114 kts 269°
2026-05-07 17:31 53.41699 165.61891 8468 ft 114 kts 269°
2026-05-07 17:31 53.41693 165.60570 8468 ft 114 kts 269°
2026-05-07 17:31 53.41688 165.59249 8468 ft 114 kts 269°
2026-05-07 17:31 53.41682 165.57928 8467 ft 114 kts 269°
2026-05-07 17:32 53.41676 165.56607 8467 ft 114 kts 269°
2026-05-07 17:32 53.41670 165.55287 8467 ft 114 kts 269°
2026-05-07 17:32 53.41664 165.53964 8467 ft 114 kts 269°
2026-05-07 17:32 53.41660 165.53073 8467 ft 114 kts 269°
2026-05-07 17:33 53.41651 165.51304 8466 ft 114 kts 269°
2026-05-07 17:33 53.41645 165.49983 8466 ft 114 kts 269°
2026-05-07 17:33 53.41638 165.48664 8466 ft 114 kts 269°
2026-05-07 17:33 53.41631 165.47343 8465 ft 114 kts 268°
2026-05-07 17:34 53.41624 165.46021 8465 ft 114 kts 268°
2026-05-07 17:34 53.41617 165.44701 8465 ft 114 kts 268°
2026-05-07 17:34 53.41609 165.43379 8465 ft 114 kts 268°
2026-05-07 17:34 53.41602 165.42059 8465 ft 114 kts 268°
2026-05-07 17:35 53.41594 165.40736 8464 ft 114 kts 268°
2026-05-07 17:35 53.41586 165.39414 8464 ft 114 kts 268°
2026-05-07 17:35 53.41578 165.38093 8464 ft 114 kts 268°
2026-05-07 17:35 53.41570 165.36773 8464 ft 114 kts 268°
2026-05-07 17:36 53.41561 165.35433 8464 ft 114 kts 268°
2026-05-07 17:36 53.41553 165.34111 8463 ft 114 kts 268°
2026-05-07 17:36 53.41544 165.32792 8463 ft 114 kts 268°
2026-05-07 17:36 53.41535 165.31469 8463 ft 114 kts 268°
2026-05-07 17:37 53.41526 165.30148 8463 ft 114 kts 268°
2026-05-07 17:37 53.41517 165.28826 8462 ft 114 kts 268°
2026-05-07 17:37 53.41508 165.27505 8462 ft 114 kts 268°
2026-05-07 17:37 53.41498 165.26185 8462 ft 114 kts 268°
2026-05-07 17:38 53.41488 165.24863 8462 ft 114 kts 268°
2026-05-07 17:38 53.41478 165.23543 8461 ft 114 kts 268°
2026-05-07 17:38 53.41468 165.22221 8461 ft 114 kts 268°
2026-05-07 17:38 53.41457 165.20899 8461 ft 114 kts 268°
2026-05-07 17:39 53.41447 165.19573 8460 ft 114 kts 268°
2026-05-07 17:39 53.41436 165.18243 8460 ft 114 kts 268°
2026-05-07 17:39 53.41425 165.16895 8460 ft 114 kts 268°
2026-05-07 17:39 53.41414 165.15563 8460 ft 114 kts 268°
2026-05-07 17:40 53.41402 165.14233 8460 ft 115 kts 268°
2026-05-07 17:40 53.41389 165.12898 8459 ft 115 kts 268°
2026-05-07 17:40 53.41376 165.11566 8459 ft 115 kts 268°
2026-05-07 17:40 53.41362 165.10235 8459 ft 115 kts 268°
2026-05-07 17:41 53.41347 165.08902 8459 ft 115 kts 268°
2026-05-07 17:41 53.41330 165.07569 8458 ft 115 kts 268°
2026-05-07 17:41 53.41312 165.06237 8458 ft 115 kts 268°
2026-05-07 17:41 53.41289 165.04904 8458 ft 115 kts 267°
2026-05-07 17:42 53.41258 165.03574 8458 ft 115 kts 268°
2026-05-07 17:42 53.41270 165.02241 8458 ft 115 kts 270°
2026-05-07 17:42 53.41283 165.00889 8457 ft 115 kts 269°
2026-05-07 17:42 53.41284 164.99553 8457 ft 115 kts 269°
2026-05-07 17:43 53.41278 164.98215 8457 ft 115 kts 269°
2026-05-07 17:43 53.41270 164.96872 8457 ft 115 kts 268°
2026-05-07 17:43 53.41259 164.95532 8456 ft 115 kts 268°
2026-05-07 17:43 53.41247 164.94187 8456 ft 115 kts 268°
2026-05-07 17:44 53.41235 164.92844 8456 ft 116 kts 268°
2026-05-07 17:44 53.41222 164.91501 8456 ft 116 kts 268°
2026-05-07 17:44 53.41209 164.90155 8455 ft 116 kts 268°
2026-05-07 17:44 53.41196 164.88813 8455 ft 116 kts 268°
2026-05-07 17:45 53.41182 164.87468 8455 ft 116 kts 268°
2026-05-07 17:45 53.41168 164.86123 8455 ft 116 kts 268°
2026-05-07 17:45 53.41155 164.84777 8454 ft 116 kts 268°
2026-05-07 17:45 53.41140 164.83413 8454 ft 116 kts 268°
2026-05-07 17:46 53.41127 164.82063 8454 ft 116 kts 268°
2026-05-07 17:46 53.41113 164.80710 8454 ft 116 kts 268°
2026-05-07 17:46 53.41098 164.79353 8454 ft 116 kts 268°
2026-05-07 17:46 53.41084 164.77999 8453 ft 116 kts 268°
2026-05-07 17:47 53.41069 164.76645 8453 ft 117 kts 268°
2026-05-07 17:47 53.41054 164.75288 8453 ft 117 kts 268°
2026-05-07 17:47 53.41039 164.73934 8453 ft 117 kts 268°
2026-05-07 17:47 53.41024 164.72577 8452 ft 117 kts 268°
2026-05-07 17:48 53.41008 164.71220 8452 ft 117 kts 268°
2026-05-07 17:48 53.40992 164.69866 8452 ft 117 kts 268°
2026-05-07 17:48 53.40977 164.68507 8451 ft 117 kts 268°
2026-05-07 17:48 53.40961 164.67144 8451 ft 117 kts 268°
2026-05-07 17:49 53.40945 164.65780 8451 ft 117 kts 268°
2026-05-07 17:49 53.40929 164.64416 8451 ft 117 kts 268°
2026-05-07 17:49 53.40913 164.63049 8451 ft 117 kts 268°
2026-05-07 17:49 53.40896 164.61665 8450 ft 118 kts 268°
2026-05-07 17:50 53.40879 164.60296 8450 ft 118 kts 268°
2026-05-07 17:50 53.40862 164.58929 8450 ft 118 kts 268°
2026-05-07 17:50 53.40845 164.57562 8450 ft 118 kts 268°
2026-05-07 17:50 53.40828 164.56195 8449 ft 118 kts 268°
2026-05-07 17:51 53.40810 164.54825 8449 ft 118 kts 268°
2026-05-07 17:51 53.40792 164.53459 8449 ft 118 kts 268°
2026-05-07 17:51 53.40775 164.52091 8449 ft 118 kts 268°
2026-05-07 17:51 53.40757 164.50722 8448 ft 118 kts 268°
2026-05-07 17:52 53.40738 164.49354 8448 ft 118 kts 268°
2026-05-07 17:52 53.40720 164.47986 8448 ft 118 kts 268°
2026-05-07 17:52 53.40702 164.46619 8448 ft 118 kts 268°
2026-05-07 17:52 53.40683 164.45250 8447 ft 118 kts 268°
2026-05-07 17:53 53.40664 164.43867 8447 ft 118 kts 268°
2026-05-07 17:53 53.40645 164.42497 8447 ft 118 kts 268°
2026-05-07 17:53 53.40626 164.41129 8447 ft 118 kts 268°
2026-05-07 17:53 53.40606 164.39760 8447 ft 118 kts 268°
2026-05-07 17:54 53.40587 164.38391 8446 ft 118 kts 268°
2026-05-07 17:54 53.40568 164.37017 8446 ft 118 kts 268°
2026-05-07 17:54 53.40548 164.35643 8445 ft 118 kts 268°
2026-05-07 17:54 53.40529 164.34266 8445 ft 118 kts 268°
2026-05-07 17:55 53.40509 164.32886 8445 ft 118 kts 268°
2026-05-07 17:55 53.40489 164.31510 8445 ft 119 kts 268°
2026-05-07 17:55 53.40468 164.30129 8445 ft 119 kts 268°
2026-05-07 17:55 53.40448 164.28749 8445 ft 119 kts 268°
2026-05-07 17:56 53.40427 164.27371 8444 ft 119 kts 268°
2026-05-07 17:56 53.40413 164.26439 8444 ft 119 kts 268°
2026-05-07 17:56 53.40391 164.25058 8444 ft 119 kts 268°
2026-05-07 17:56 53.40370 164.23680 8444 ft 119 kts 268°
2026-05-07 17:57 53.40349 164.22301 8444 ft 119 kts 268°
2026-05-07 17:57 53.40327 164.20922 8443 ft 119 kts 268°
2026-05-07 17:57 53.40305 164.19539 8443 ft 119 kts 268°
2026-05-07 17:57 53.40283 164.18160 8443 ft 119 kts 268°
2026-05-07 17:58 53.40261 164.16780 8443 ft 119 kts 268°
2026-05-07 17:58 53.40239 164.15400 8442 ft 119 kts 268°
2026-05-07 17:58 53.40216 164.14002 8442 ft 119 kts 268°
2026-05-07 17:58 53.40194 164.12622 8442 ft 119 kts 268°
2026-05-07 17:59 53.40171 164.11241 8442 ft 119 kts 268°
2026-05-07 17:59 53.40148 164.09864 8441 ft 119 kts 268°
2026-05-07 17:59 53.40125 164.08484 8441 ft 119 kts 268°
2026-05-07 17:59 53.40102 164.07105 8441 ft 119 kts 268°
2026-05-07 18:00 53.40078 164.05724 8441 ft 119 kts 268°
2026-05-07 18:00 53.40055 164.04345 8440 ft 119 kts 268°
2026-05-07 18:00 53.40031 164.02965 8440 ft 119 kts 268°
2026-05-07 18:00 53.40007 164.01586 8440 ft 119 kts 268°
2026-05-07 18:01 53.39983 164.00204 8440 ft 119 kts 268°
2026-05-07 18:01 53.39959 163.98828 8439 ft 118 kts 268°
2026-05-07 18:01 53.39934 163.97434 8439 ft 118 kts 268°
2026-05-07 18:01 53.39909 163.96061 8439 ft 118 kts 268°
2026-05-07 18:02 53.39859 163.93322 8439 ft 118 kts 268°
2026-05-07 18:02 53.39834 163.91953 8438 ft 118 kts 268°
2026-05-07 18:02 53.39809 163.90583 8438 ft 118 kts 268°
2026-05-07 18:03 53.39783 163.89214 8438 ft 118 kts 268°
2026-05-07 18:03 53.39758 163.87849 8438 ft 118 kts 268°
2026-05-07 18:03 53.39733 163.86479 8437 ft 118 kts 268°
2026-05-07 18:03 53.39707 163.85112 8437 ft 118 kts 268°
2026-05-07 18:04 53.39681 163.83743 8437 ft 118 kts 268°
2026-05-07 18:04 53.39655 163.82375 8437 ft 118 kts 268°
2026-05-07 18:04 53.39629 163.81007 8436 ft 118 kts 268°
2026-05-07 18:04 53.39603 163.79638 8436 ft 118 kts 268°
2026-05-07 18:05 53.39576 163.78250 8436 ft 118 kts 267°
2026-05-07 18:05 53.39550 163.76882 8436 ft 118 kts 267°
2026-05-07 18:05 53.39523 163.75515 8436 ft 118 kts 267°
2026-05-07 18:05 53.39496 163.74147 8435 ft 118 kts 267°
2026-05-07 18:06 53.39469 163.72776 8435 ft 118 kts 267°
2026-05-07 18:06 53.39442 163.71410 8435 ft 118 kts 267°
2026-05-07 18:06 53.39415 163.70041 8435 ft 118 kts 267°
2026-05-07 18:06 53.39387 163.68672 8434 ft 118 kts 267°
2026-05-07 18:07 53.39360 163.67304 8434 ft 118 kts 267°
2026-05-07 18:07 53.39332 163.65936 8434 ft 118 kts 267°
2026-05-07 18:07 53.39304 163.64566 8434 ft 118 kts 267°
2026-05-07 18:07 53.39276 163.63200 8434 ft 118 kts 267°
2026-05-07 18:08 53.39248 163.61832 8433 ft 118 kts 267°
2026-05-07 18:08 53.39219 163.60445 8433 ft 118 kts 267°
2026-05-07 18:08 53.39190 163.59076 8433 ft 118 kts 268°
2026-05-07 18:08 53.39162 163.57709 8433 ft 118 kts 268°
2026-05-07 18:09 53.39133 163.56340 8432 ft 118 kts 267°
2026-05-07 18:09 53.39104 163.54973 8432 ft 117 kts 267°
2026-05-07 18:09 53.39074 163.53609 8432 ft 117 kts 267°
2026-05-07 18:09 53.39045 163.52248 8432 ft 117 kts 267°
2026-05-07 18:10 53.39015 163.50889 8431 ft 117 kts 267°
2026-05-07 18:10 53.38985 163.49532 8431 ft 117 kts 267°
2026-05-07 18:10 53.38955 163.48175 8431 ft 117 kts 267°
2026-05-07 18:10 53.38925 163.46819 8431 ft 117 kts 267°
2026-05-07 18:11 53.38895 163.45462 8430 ft 117 kts 267°
2026-05-07 18:11 53.38875 163.44546 8430 ft 117 kts 267°
2026-05-07 18:11 53.38835 163.42748 8430 ft 117 kts 267°
2026-05-07 18:11 53.38804 163.41374 8430 ft 117 kts 267°
2026-05-07 18:12 53.38773 163.40018 8430 ft 117 kts 267°
2026-05-07 18:12 53.38743 163.38664 8429 ft 117 kts 267°
2026-05-07 18:12 53.38712 163.37306 8429 ft 117 kts 267°
2026-05-07 18:12 53.38681 163.35951 8429 ft 117 kts 267°
2026-05-07 18:13 53.38650 163.34594 8429 ft 117 kts 267°
2026-05-07 18:13 53.38618 163.33238 8429 ft 117 kts 267°
2026-05-07 18:13 53.38587 163.31884 8428 ft 117 kts 267°
2026-05-07 18:13 53.38555 163.30526 8428 ft 117 kts 267°
2026-05-07 18:14 53.38524 163.29171 8428 ft 117 kts 267°
2026-05-07 18:14 53.38492 163.27816 8428 ft 117 kts 267°
2026-05-07 18:14 53.38460 163.26460 8427 ft 117 kts 267°
2026-05-07 18:14 53.38428 163.25103 8427 ft 117 kts 267°
2026-05-07 18:15 53.38395 163.23730 8427 ft 117 kts 267°
2026-05-07 18:15 53.38362 163.22374 8427 ft 117 kts 267°
2026-05-07 18:15 53.38330 163.21018 8427 ft 117 kts 267°
2026-05-07 18:15 53.38297 163.19661 8427 ft 117 kts 267°
2026-05-07 18:16 53.38264 163.18308 8427 ft 117 kts 267°
2026-05-07 18:16 53.38231 163.16951 8427 ft 117 kts 267°
2026-05-07 18:16 53.38197 163.15597 8427 ft 117 kts 267°
2026-05-07 18:16 53.38164 163.14242 8427 ft 117 kts 267°
2026-05-07 18:17 53.38130 163.12885 8427 ft 117 kts 267°
2026-05-07 18:17 53.38097 163.11530 8426 ft 117 kts 267°
2026-05-07 18:17 53.38063 163.10173 8426 ft 117 kts 267°
2026-05-07 18:17 53.38029 163.08818 8426 ft 117 kts 267°
2026-05-07 18:18 53.37994 163.07444 8426 ft 117 kts 267°
2026-05-07 18:18 53.37960 163.06105 8426 ft 117 kts 267°
2026-05-07 18:18 53.37925 163.04733 8425 ft 117 kts 267°
2026-05-07 18:18 53.37890 163.03376 8425 ft 117 kts 267°
2026-05-07 18:19 53.37855 163.02022 8425 ft 117 kts 267°
2026-05-07 18:19 53.37820 163.00666 8425 ft 117 kts 267°
2026-05-07 18:19 53.37785 162.99310 8425 ft 117 kts 267°
2026-05-07 18:19 53.37750 162.97952 8424 ft 117 kts 267°
2026-05-07 18:20 53.37714 162.96596 8424 ft 117 kts 267°
2026-05-07 18:20 53.37679 162.95239 8424 ft 117 kts 267°
2026-05-07 18:20 53.37643 162.93884 8423 ft 117 kts 267°
2026-05-07 18:20 53.37607 162.92524 8423 ft 117 kts 267°
2026-05-07 18:21 53.37571 162.91158 8423 ft 117 kts 267°
2026-05-07 18:21 53.37535 162.89794 8423 ft 118 kts 267°
2026-05-07 18:21 53.37498 162.88411 8423 ft 118 kts 267°
2026-05-07 18:21 53.37462 162.87043 8423 ft 118 kts 267°
2026-05-07 18:22 53.37425 162.85677 8422 ft 118 kts 267°
2026-05-07 18:22 53.37400 162.84773 8422 ft 118 kts 267°
2026-05-07 18:22 53.37350 162.82943 8422 ft 118 kts 267°
2026-05-07 18:22 53.37313 162.81576 8422 ft 118 kts 267°
2026-05-07 18:23 53.37275 162.80207 8422 ft 118 kts 267°
2026-05-07 18:23 53.37237 162.78839 8421 ft 118 kts 267°
2026-05-07 18:23 53.37199 162.77473 8421 ft 118 kts 266°
2026-05-07 18:23 53.37160 162.76104 8421 ft 118 kts 266°
2026-05-07 18:24 53.37122 162.74738 8421 ft 118 kts 266°
2026-05-07 18:24 53.37083 162.73370 8420 ft 118 kts 266°
2026-05-07 18:24 53.37045 162.72001 8420 ft 118 kts 266°
2026-05-07 18:24 53.37005 162.70615 8420 ft 118 kts 266°
2026-05-07 18:25 53.36966 162.69251 8425 ft 117 kts 267°
2026-05-07 18:25 53.36926 162.67913 8477 ft 114 kts 266°
2026-05-07 18:25 53.36884 162.66591 8494 ft 114 kts 266°
2026-05-07 18:25 53.36843 162.65256 8498 ft 115 kts 266°
2026-05-07 18:26 53.36805 162.63912 8500 ft 116 kts 266°
2026-05-07 18:26 53.36766 162.62562 8500 ft 117 kts 267°
2026-05-07 18:26 53.36728 162.61205 8500 ft 117 kts 266°
2026-05-07 18:26 53.36689 162.59842 8500 ft 117 kts 266°
2026-05-07 18:27 53.36649 162.58479 8499 ft 117 kts 266°
2026-05-07 18:27 53.36609 162.57115 8499 ft 118 kts 266°
2026-05-07 18:27 53.36568 162.55752 8499 ft 118 kts 266°
2026-05-07 18:27 53.36540 162.54829 8499 ft 118 kts 266°
2026-05-07 18:28 53.36485 162.52999 8499 ft 118 kts 266°
2026-05-07 18:28 53.36443 162.51635 8498 ft 118 kts 266°
2026-05-07 18:28 53.36401 162.50268 8498 ft 118 kts 266°
2026-05-07 18:28 53.36359 162.48900 8498 ft 118 kts 266°
2026-05-07 18:29 53.36316 162.47534 8498 ft 118 kts 266°
2026-05-07 18:29 53.36273 162.46169 8497 ft 118 kts 266°
2026-05-07 18:29 53.36229 162.44799 8497 ft 118 kts 266°
2026-05-07 18:29 53.36186 162.43424 8497 ft 118 kts 266°
2026-05-07 18:30 53.36141 162.42050 8497 ft 119 kts 266°
2026-05-07 18:30 53.36096 162.40675 8497 ft 119 kts 266°
2026-05-07 18:30 53.36049 162.39297 8496 ft 119 kts 266°
2026-05-07 18:30 53.36001 162.37920 8496 ft 119 kts 266°
2026-05-07 18:31 53.35951 162.36542 8496 ft 119 kts 266°
2026-05-07 18:31 53.35897 162.35148 8496 ft 119 kts 265°
2026-05-07 18:31 53.35838 162.33772 8496 ft 119 kts 265°
2026-05-07 18:31 53.35768 162.32397 8495 ft 119 kts 265°
2026-05-07 18:32 53.35755 162.31017 8495 ft 119 kts 269°
2026-05-07 18:32 53.35746 162.29638 8495 ft 119 kts 268°
2026-05-07 18:32 53.35721 162.28260 8495 ft 119 kts 267°
2026-05-07 18:32 53.35686 162.26879 8495 ft 119 kts 266°
2026-05-07 18:33 53.35647 162.25501 8494 ft 119 kts 266°
2026-05-07 18:33 53.35605 162.24121 8494 ft 119 kts 266°
2026-05-07 18:33 53.35561 162.22743 8494 ft 119 kts 266°
2026-05-07 18:33 53.35517 162.21367 8494 ft 119 kts 266°
2026-05-07 18:34 53.35473 162.19987 8494 ft 119 kts 266°
2026-05-07 18:34 53.35428 162.18610 8494 ft 119 kts 266°
2026-05-07 18:34 53.35382 162.17230 8493 ft 119 kts 266°
2026-05-07 18:34 53.35337 162.15852 8493 ft 119 kts 266°
2026-05-07 18:35 53.35291 162.14457 8493 ft 119 kts 266°
2026-05-07 18:35 53.35245 162.13080 8493 ft 119 kts 266°
2026-05-07 18:35 53.35199 162.11701 8493 ft 119 kts 266°
2026-05-07 18:35 53.35153 162.10321 8493 ft 119 kts 266°
2026-05-07 18:36 53.35107 162.08945 8492 ft 119 kts 266°
2026-05-07 18:36 53.35060 162.07565 8492 ft 119 kts 266°
2026-05-07 18:36 53.35014 162.06189 8492 ft 119 kts 266°
2026-05-07 18:36 53.34967 162.04810 8492 ft 119 kts 266°
2026-05-07 18:37 53.34920 162.03433 8492 ft 119 kts 266°
2026-05-07 18:37 53.34873 162.02054 8491 ft 119 kts 266°
2026-05-07 18:37 53.34826 162.00676 8491 ft 119 kts 266°
2026-05-07 18:37 53.34778 161.99299 8491 ft 118 kts 266°
2026-05-07 18:38 53.34730 161.97911 8491 ft 118 kts 266°
2026-05-07 18:38 53.34682 161.96547 8491 ft 117 kts 266°
2026-05-07 18:38 53.34633 161.95187 8491 ft 117 kts 266°
2026-05-07 18:38 53.34585 161.93831 8490 ft 117 kts 266°
2026-05-07 18:39 53.34537 161.92473 8490 ft 117 kts 266°
2026-05-07 18:39 53.34489 161.91120 8485 ft 117 kts 266°
2026-05-07 18:39 53.34441 161.89759 8482 ft 117 kts 266°
2026-05-07 18:39 53.34393 161.88400 8481 ft 117 kts 266°
2026-05-07 18:40 53.34345 161.87044 8481 ft 117 kts 266°
2026-05-07 18:40 53.34296 161.85689 8481 ft 117 kts 266°
2026-05-07 18:40 53.34248 161.84337 8481 ft 117 kts 266°
2026-05-07 18:40 53.34199 161.82981 8481 ft 117 kts 266°
2026-05-07 18:41 53.34151 161.81626 8481 ft 117 kts 266°
2026-05-07 18:41 53.34101 161.80254 8481 ft 117 kts 266°
2026-05-07 18:41 53.34053 161.78919 8481 ft 116 kts 266°
2026-05-07 18:41 53.34003 161.77553 8481 ft 116 kts 266°
2026-05-07 18:42 53.33953 161.76209 8481 ft 116 kts 266°
2026-05-07 18:42 53.33904 161.74864 8480 ft 116 kts 266°
2026-05-07 18:42 53.33854 161.73519 8480 ft 116 kts 266°
2026-05-07 18:42 53.33804 161.72178 8480 ft 116 kts 266°
2026-05-07 18:43 53.33755 161.70835 8480 ft 116 kts 266°
2026-05-07 18:43 53.33705 161.69494 8480 ft 116 kts 266°
2026-05-07 18:43 53.33655 161.68151 8480 ft 116 kts 266°
2026-05-07 18:43 53.33605 161.66810 8480 ft 116 kts 266°
2026-05-07 18:44 53.33555 161.65467 8480 ft 116 kts 266°
2026-05-07 18:44 53.33505 161.64126 8480 ft 116 kts 266°
2026-05-07 18:44 53.33455 161.62783 8480 ft 116 kts 266°
2026-05-07 18:44 53.33404 161.61425 8479 ft 116 kts 266°
2026-05-07 18:45 53.33353 161.60084 8479 ft 116 kts 266°
2026-05-07 18:45 53.33302 161.58741 8479 ft 116 kts 266°
2026-05-07 18:45 53.33251 161.57398 8479 ft 116 kts 266°
2026-05-07 18:45 53.33200 161.56058 8479 ft 116 kts 266°
2026-05-07 18:46 53.33149 161.54717 8479 ft 116 kts 266°
2026-05-07 18:46 53.33098 161.53376 8479 ft 116 kts 266°
2026-05-07 18:46 53.33046 161.52034 8479 ft 116 kts 266°
2026-05-07 18:46 53.32995 161.50690 8479 ft 116 kts 266°
2026-05-07 18:47 53.32943 161.49350 8479 ft 116 kts 266°
2026-05-07 18:47 53.32891 161.48007 8478 ft 116 kts 266°
2026-05-07 18:47 53.32839 161.46668 8478 ft 116 kts 266°
2026-05-07 18:47 53.32786 161.45325 8478 ft 116 kts 266°
2026-05-07 18:48 53.32751 161.44420 8478 ft 116 kts 266°
2026-05-07 18:48 53.32681 161.42625 8478 ft 116 kts 266°
2026-05-07 18:48 53.32628 161.41289 8478 ft 115 kts 266°
2026-05-07 18:48 53.32575 161.39953 8478 ft 115 kts 266°
2026-05-07 18:49 53.32521 161.38622 8478 ft 115 kts 266°
2026-05-07 18:49 53.32486 161.37739 8478 ft 115 kts 266°
2026-05-07 18:49 53.32433 161.36409 8477 ft 115 kts 266°
2026-05-07 18:49 53.32379 161.35077 8477 ft 115 kts 266°
2026-05-07 18:50 53.32325 161.33730 8477 ft 115 kts 266°
2026-05-07 18:50 53.32273 161.32417 8477 ft 115 kts 266°
2026-05-07 18:50 53.32218 161.31071 8477 ft 115 kts 266°
2026-05-07 18:50 53.32165 161.29742 8477 ft 115 kts 266°
2026-05-07 18:51 53.32111 161.28413 8477 ft 115 kts 266°
2026-05-07 18:51 53.32057 161.27084 8477 ft 115 kts 266°
2026-05-07 18:51 53.32003 161.25753 8477 ft 115 kts 266°
2026-05-07 18:51 53.31949 161.24424 8477 ft 115 kts 266°
2026-05-07 18:52 53.31894 161.23094 8477 ft 115 kts 266°
2026-05-07 18:52 53.31840 161.21764 8477 ft 115 kts 266°
2026-05-07 18:52 53.31785 161.20436 8477 ft 115 kts 266°
2026-05-07 18:52 53.31730 161.19108 8477 ft 115 kts 266°
2026-05-07 18:53 53.31675 161.17778 8477 ft 115 kts 266°
2026-05-07 18:53 53.31620 161.16449 8476 ft 115 kts 266°
2026-05-07 18:53 53.31564 161.15102 8476 ft 115 kts 266°
2026-05-07 18:53 53.31509 161.13774 8476 ft 115 kts 266°
2026-05-07 18:54 53.31453 161.12443 8476 ft 115 kts 266°
2026-05-07 18:54 53.31397 161.11114 8476 ft 115 kts 266°
2026-05-07 18:54 53.31341 161.09787 8476 ft 115 kts 266°
2026-05-07 18:54 53.31285 161.08457 8476 ft 115 kts 266°
2026-05-07 18:55 53.31229 161.07127 8476 ft 115 kts 266°
2026-05-07 18:55 53.31173 161.05798 8476 ft 115 kts 266°
2026-05-07 18:55 53.31116 161.04468 8476 ft 115 kts 266°
2026-05-07 18:55 53.31059 161.03139 8475 ft 115 kts 266°
2026-05-07 18:56 53.31002 161.01808 8475 ft 115 kts 266°
2026-05-07 18:56 53.30945 161.00480 8475 ft 115 kts 266°
2026-05-07 18:56 53.30888 160.99134 8475 ft 115 kts 266°
2026-05-07 18:56 53.30830 160.97804 8475 ft 115 kts 266°
2026-05-07 18:57 53.30773 160.96477 8475 ft 115 kts 266°
2026-05-07 18:57 53.30715 160.95146 8475 ft 115 kts 266°
2026-05-07 18:57 53.30657 160.93817 8475 ft 115 kts 266°
2026-05-07 18:57 53.30599 160.92489 8475 ft 115 kts 266°
2026-05-07 18:58 53.30541 160.91159 8475 ft 115 kts 266°
2026-05-07 18:58 53.30482 160.89831 8475 ft 115 kts 266°
2026-05-07 18:58 53.30423 160.88502 8475 ft 115 kts 266°
2026-05-07 18:58 53.30365 160.87176 8475 ft 115 kts 266°
2026-05-07 18:59 53.30306 160.85848 8475 ft 115 kts 266°
2026-05-07 18:59 53.30246 160.84520 8475 ft 115 kts 266°
2026-05-07 18:59 53.30187 160.83190 8474 ft 115 kts 266°
2026-05-07 18:59 53.30126 160.81844 8474 ft 115 kts 266°
2026-05-07 19:00 53.30067 160.80515 8474 ft 115 kts 266°
2026-05-07 19:00 53.30007 160.79188 8474 ft 115 kts 266°
2026-05-07 19:00 53.29946 160.77861 8474 ft 115 kts 266°
2026-05-07 19:00 53.29885 160.76530 8474 ft 115 kts 266°
2026-05-07 19:01 53.29824 160.75203 8474 ft 115 kts 266°
2026-05-07 19:01 53.29763 160.73877 8474 ft 115 kts 266°
2026-05-07 19:01 53.29702 160.72546 8474 ft 115 kts 266°
2026-05-07 19:01 53.29639 160.71218 8474 ft 115 kts 266°
2026-05-07 19:02 53.29577 160.69890 8474 ft 115 kts 266°
2026-05-07 19:02 53.29514 160.68562 8474 ft 115 kts 266°
2026-05-07 19:02 53.29450 160.67234 8474 ft 115 kts 266°
2026-05-07 19:02 53.29385 160.65906 8474 ft 115 kts 266°
2026-05-07 19:03 53.29318 160.64577 8474 ft 115 kts 266°
2026-05-07 19:03 53.29249 160.63232 8474 ft 115 kts 266°
2026-05-07 19:03 53.29177 160.61905 8473 ft 115 kts 265°
2026-05-07 19:03 53.29099 160.60578 8473 ft 115 kts 265°
2026-05-07 19:04 53.29009 160.59263 8493 ft 114 kts 264°
2026-05-07 19:04 53.28976 160.57947 8498 ft 114 kts 269°
2026-05-07 19:04 53.28951 160.56627 8500 ft 114 kts 268°
2026-05-07 19:04 53.28909 160.55304 8500 ft 114 kts 267°
2026-05-07 19:05 53.28857 160.53979 8500 ft 115 kts 267°
2026-05-07 19:05 53.28800 160.52646 8501 ft 115 kts 266°
2026-05-07 19:05 53.28741 160.51320 8501 ft 115 kts 266°
2026-05-07 19:05 53.28680 160.49992 8500 ft 115 kts 266°
2026-05-07 19:06 53.28618 160.48664 8500 ft 115 kts 266°
2026-05-07 19:06 53.28493 160.46009 8500 ft 115 kts 266°
2026-05-07 19:06 53.28430 160.44679 8500 ft 115 kts 266°
2026-05-07 19:07 53.28366 160.43333 8500 ft 115 kts 266°
2026-05-07 19:07 53.28302 160.42004 8500 ft 115 kts 266°
2026-05-07 19:07 53.28239 160.40678 8500 ft 115 kts 266°
2026-05-07 19:07 53.28175 160.39350 8500 ft 115 kts 266°
2026-05-07 19:08 53.28111 160.38021 8500 ft 115 kts 266°
2026-05-07 19:08 53.28047 160.36692 8500 ft 115 kts 266°
2026-05-07 19:08 53.27982 160.35362 8500 ft 115 kts 266°
2026-05-07 19:08 53.27918 160.34036 8500 ft 115 kts 266°
2026-05-07 19:09 53.27853 160.32705 8500 ft 115 kts 266°
2026-05-07 19:09 53.27788 160.31376 8500 ft 115 kts 266°
2026-05-07 19:09 53.27723 160.30050 8500 ft 115 kts 266°
2026-05-07 19:09 53.27658 160.28720 8500 ft 115 kts 266°
2026-05-07 19:10 53.27593 160.27391 8499 ft 115 kts 266°
2026-05-07 19:10 53.27526 160.26044 8499 ft 115 kts 266°
2026-05-07 19:10 53.27460 160.24716 8499 ft 115 kts 266°
2026-05-07 19:10 53.27394 160.23387 8499 ft 115 kts 266°
2026-05-07 19:11 53.27328 160.22057 8499 ft 115 kts 266°
2026-05-07 19:11 53.27261 160.20730 8499 ft 115 kts 266°
2026-05-07 19:11 53.27195 160.19401 8499 ft 115 kts 266°
2026-05-07 19:11 53.27127 160.18071 8499 ft 115 kts 266°
2026-05-07 19:12 53.27060 160.16742 8499 ft 115 kts 266°
2026-05-07 19:12 53.26992 160.15414 8499 ft 115 kts 266°
2026-05-07 19:12 53.26924 160.14084 8500 ft 115 kts 266°
2026-05-07 19:12 53.26855 160.12757 8500 ft 115 kts 266°
2026-05-07 19:13 53.26786 160.11430 8500 ft 115 kts 266°
2026-05-07 19:13 53.26716 160.10102 8500 ft 115 kts 266°
2026-05-07 19:13 53.26645 160.08754 8500 ft 115 kts 266°
2026-05-07 19:13 53.26573 160.07428 8500 ft 115 kts 266°
2026-05-07 19:14 53.26500 160.06098 8500 ft 115 kts 266°
2026-05-07 19:14 53.26426 160.04773 8500 ft 115 kts 266°
2026-05-07 19:14 53.26347 160.03442 8500 ft 115 kts 265°
2026-05-07 19:14 53.26264 160.02117 8500 ft 115 kts 265°
2026-05-07 19:15 53.26166 160.00792 8500 ft 115 kts 264°
2026-05-07 19:15 53.26023 159.99475 8500 ft 115 kts 259°
2026-05-07 19:15 53.25823 159.98179 8500 ft 115 kts 256°
2026-05-07 19:15 53.25591 159.96897 8500 ft 115 kts 254°
2026-05-07 19:16 53.25342 159.95624 8500 ft 115 kts 253°
2026-05-07 19:16 53.25085 159.94357 8500 ft 115 kts 253°
2026-05-07 19:16 53.24824 159.93093 8500 ft 115 kts 253°
2026-05-07 19:16 53.24558 159.91812 8500 ft 115 kts 252°
2026-05-07 19:17 53.24293 159.90548 8500 ft 115 kts 252°
2026-05-07 19:17 53.24029 159.89287 8500 ft 115 kts 252°
2026-05-07 19:17 53.23764 159.88024 8500 ft 115 kts 252°
2026-05-07 19:17 53.23499 159.86763 8500 ft 115 kts 252°
2026-05-07 19:18 53.23233 159.85500 8500 ft 115 kts 252°
2026-05-07 19:18 53.22968 159.84239 8500 ft 115 kts 252°
2026-05-07 19:18 53.22702 159.82979 8500 ft 115 kts 252°
2026-05-07 19:18 53.22436 159.81719 8500 ft 115 kts 252°
2026-05-07 19:19 53.22170 159.80458 8500 ft 115 kts 252°
2026-05-07 19:19 53.21904 159.79198 8500 ft 115 kts 252°
2026-05-07 19:19 53.21639 159.77943 8501 ft 115 kts 252°
2026-05-07 19:19 53.21373 159.76688 8500 ft 115 kts 252°
2026-05-07 19:20 53.21104 159.75420 8500 ft 115 kts 252°
2026-05-07 19:20 53.20839 159.74170 8500 ft 114 kts 252°
2026-05-07 19:20 53.20574 159.72921 8500 ft 114 kts 252°
2026-05-07 19:20 53.20309 159.71671 8500 ft 115 kts 252°
2026-05-07 19:21 53.20044 159.70418 8499 ft 115 kts 252°
2026-05-07 19:21 53.19778 159.69163 8499 ft 115 kts 252°
2026-05-07 19:21 53.19512 159.67905 8499 ft 115 kts 252°
2026-05-07 19:21 53.19245 159.66650 8499 ft 115 kts 252°
2026-05-07 19:22 53.18978 159.65392 8499 ft 115 kts 252°
2026-05-07 19:22 53.18712 159.64137 8499 ft 115 kts 252°
2026-05-07 19:22 53.18444 159.62879 8500 ft 115 kts 252°
2026-05-07 19:22 53.18176 159.61621 8500 ft 115 kts 252°
2026-05-07 19:23 53.17908 159.60363 8500 ft 115 kts 252°
2026-05-07 19:23 53.17637 159.59091 8500 ft 115 kts 252°
2026-05-07 19:23 53.17369 159.57835 8500 ft 115 kts 252°
2026-05-07 19:23 53.17101 159.56579 8500 ft 115 kts 252°
2026-05-07 19:24 53.16832 159.55323 8500 ft 115 kts 252°
2026-05-07 19:24 53.16564 159.54068 8500 ft 115 kts 252°
2026-05-07 19:24 53.16296 159.52813 8500 ft 115 kts 252°
2026-05-07 19:24 53.16027 159.51558 8500 ft 115 kts 252°
2026-05-07 19:25 53.15758 159.50303 8500 ft 115 kts 252°
2026-05-07 19:25 53.15489 159.49047 8500 ft 115 kts 252°
2026-05-07 19:25 53.15220 159.47793 8500 ft 115 kts 252°
2026-05-07 19:25 53.14951 159.46540 8500 ft 115 kts 252°
2026-05-07 19:26 53.14682 159.45285 8500 ft 115 kts 252°
2026-05-07 19:26 53.14413 159.44032 8500 ft 115 kts 252°
2026-05-07 19:26 53.14140 159.42764 8500 ft 115 kts 252°
2026-05-07 19:26 53.13870 159.41508 8491 ft 116 kts 252°
2026-05-07 19:27 53.13596 159.40223 8419 ft 119 kts 252°
2026-05-07 19:27 53.13329 159.38972 8343 ft 109 kts 251°
2026-05-07 19:27 53.13071 159.37850 8256 ft 99 kts 250°
2026-05-07 19:27 53.12823 159.36813 8162 ft 95 kts 250°
2026-05-07 19:28 53.12587 159.35804 8071 ft 93 kts 250°
2026-05-07 19:28 53.12360 159.34802 7983 ft 92 kts 251°
2026-05-07 19:28 53.12138 159.33807 7898 ft 91 kts 251°
2026-05-07 19:28 53.11921 159.32818 7816 ft 91 kts 251°
2026-05-07 19:29 53.11705 159.31833 7734 ft 90 kts 251°
2026-05-07 19:29 53.11491 159.30853 7652 ft 90 kts 251°
2026-05-07 19:29 53.11277 159.29863 7550 ft 92 kts 251°
2026-05-07 19:29 53.11062 159.28858 7450 ft 93 kts 251°
2026-05-07 19:30 53.10842 159.27833 7349 ft 93 kts 251°
2026-05-07 19:30 53.10623 159.26814 7251 ft 94 kts 251°
2026-05-07 19:30 53.10403 159.25791 7152 ft 94 kts 251°
2026-05-07 19:30 53.10182 159.24766 7054 ft 94 kts 251°
2026-05-07 19:31 53.09960 159.23742 6954 ft 94 kts 251°
2026-05-07 19:31 53.09740 159.22731 6852 ft 93 kts 251°
2026-05-07 19:31 53.09520 159.21729 6751 ft 92 kts 251°
2026-05-07 19:31 53.09301 159.20728 6649 ft 92 kts 251°
2026-05-07 19:32 53.09083 159.19730 6548 ft 92 kts 251°
2026-05-07 19:32 53.08866 159.18735 6448 ft 92 kts 251°
2026-05-07 19:32 53.08649 159.17740 6347 ft 92 kts 251°
2026-05-07 19:32 53.08432 159.16748 6246 ft 91 kts 251°
2026-05-07 19:33 53.08216 159.15758 6145 ft 91 kts 251°
2026-05-07 19:33 53.07997 159.14756 6043 ft 91 kts 251°
2026-05-07 19:33 53.07781 159.13769 5943 ft 91 kts 251°
2026-05-07 19:33 53.07566 159.12787 5842 ft 90 kts 251°
2026-05-07 19:34 53.07352 159.11811 5739 ft 90 kts 251°
2026-05-07 19:34 53.07139 159.10842 5637 ft 89 kts 250°
2026-05-07 19:34 53.06926 159.09874 5536 ft 89 kts 250°
2026-05-07 19:34 53.06714 159.08903 5436 ft 89 kts 250°
2026-05-07 19:35 53.06501 159.07933 5336 ft 90 kts 250°
2026-05-07 19:35 53.06289 159.06963 5237 ft 90 kts 250°
2026-05-07 19:35 53.06076 159.05991 5137 ft 90 kts 250°
2026-05-07 19:35 53.05863 159.05020 5038 ft 90 kts 250°
2026-05-07 19:36 53.05650 159.04047 4938 ft 90 kts 250°
2026-05-07 19:36 53.05434 159.03059 4836 ft 90 kts 250°
2026-05-07 19:36 53.05220 159.02079 4737 ft 90 kts 250°
2026-05-07 19:36 53.05005 159.01099 4637 ft 91 kts 250°
2026-05-07 19:37 53.04790 159.00121 4538 ft 90 kts 250°
2026-05-07 19:37 53.04575 158.99146 4437 ft 90 kts 250°
2026-05-07 19:37 53.04361 158.98174 4337 ft 90 kts 249°
2026-05-07 19:37 53.04146 158.97200 4237 ft 90 kts 249°
2026-05-07 19:38 53.03931 158.96226 4137 ft 90 kts 249°
2026-05-07 19:38 53.03716 158.95246 4037 ft 91 kts 249°
2026-05-07 19:38 53.03500 158.94265 3937 ft 91 kts 249°
2026-05-07 19:38 53.03283 158.93282 3838 ft 91 kts 249°
2026-05-07 19:39 53.03067 158.92299 3739 ft 91 kts 249°
2026-05-07 19:39 53.02849 158.91315 3640 ft 91 kts 249°
2026-05-07 19:39 53.02631 158.90330 3540 ft 91 kts 249°
2026-05-07 19:39 53.02484 158.89665 3473 ft 91 kts 249°
2026-05-07 19:40 53.02190 158.88339 3339 ft 92 kts 249°
2026-05-07 19:40 53.01970 158.87346 3240 ft 92 kts 249°
2026-05-07 19:40 53.01749 158.86355 3141 ft 92 kts 249°
2026-05-07 19:40 53.01527 158.85359 3042 ft 92 kts 248°
2026-05-07 19:41 53.01304 158.84367 2943 ft 92 kts 248°
2026-05-07 19:41 53.01080 158.83373 2844 ft 92 kts 248°
2026-05-07 19:41 53.00854 158.82378 2744 ft 92 kts 248°
2026-05-07 19:41 53.00627 158.81393 2643 ft 90 kts 248°
2026-05-07 19:42 53.00398 158.80432 2538 ft 88 kts 247°
2026-05-07 19:42 53.00170 158.79539 2508 ft 80 kts 244°
2026-05-07 19:42 53.00147 158.78630 2504 ft 85 kts 289°
2026-05-07 19:42 53.00423 158.77771 2511 ft 84 kts 291°
2026-05-07 19:43 53.00590 158.77180 2510 ft 84 kts 289°
2026-05-07 19:43 53.00892 158.76000 2507 ft 84 kts 288°
2026-05-07 19:43 53.01041 158.75394 2506 ft 84 kts 288°
2026-05-07 19:43 53.01260 158.74491 2505 ft 84 kts 287°
2026-05-07 19:44 53.01477 158.73588 2504 ft 84 kts 287°
2026-05-07 19:44 53.01694 158.72682 2503 ft 84 kts 287°
2026-05-07 19:44 53.01911 158.71777 2502 ft 85 kts 287°
2026-05-07 19:44 53.02127 158.70872 2502 ft 84 kts 287°
2026-05-07 19:45 53.02343 158.69966 2502 ft 84 kts 287°
2026-05-07 19:45 53.02559 158.69060 2502 ft 84 kts 287°
2026-05-07 19:45 53.02778 158.68144 2501 ft 85 kts 287°
2026-05-07 19:45 53.02994 158.67238 2501 ft 84 kts 287°
2026-05-07 19:46 53.03210 158.66331 2501 ft 84 kts 287°
2026-05-07 19:46 53.03425 158.65425 2501 ft 84 kts 287°
2026-05-07 19:46 53.03641 158.64518 2501 ft 84 kts 287°
2026-05-07 19:46 53.03856 158.63613 2501 ft 85 kts 287°
2026-05-07 19:47 53.04071 158.62706 2500 ft 85 kts 287°
2026-05-07 19:47 53.04273 158.61852 2500 ft 85 kts 287°
2026-05-07 19:47 53.04482 158.60973 2499 ft 85 kts 287°
2026-05-07 19:47 53.04697 158.60062 2494 ft 86 kts 287°
2026-05-07 19:48 53.04928 158.59100 2375 ft 90 kts 289°
2026-05-07 19:48 53.05155 158.58155 2242 ft 87 kts 289°
2026-05-07 19:48 53.05375 158.57214 2111 ft 88 kts 288°
2026-05-07 19:48 53.05597 158.56262 1986 ft 89 kts 288°
2026-05-07 19:49 53.05821 158.55297 1864 ft 90 kts 289°
2026-05-07 19:49 53.06047 158.54307 1741 ft 91 kts 288°
2026-05-07 19:49 53.06260 158.53329 1615 ft 88 kts 287°
2026-05-07 19:49 53.06504 158.52450 1506 ft 82 kts 311°
2026-05-07 19:50 53.07040 158.52095 1511 ft 83 kts 340°
2026-05-07 19:50 53.07586 158.51784 1515 ft 83 kts 335°
2026-05-07 19:50 53.08115 158.51393 1515 ft 83 kts 332°
2026-05-07 19:50 53.08644 158.50972 1499 ft 85 kts 331°
2026-05-07 19:51 53.09174 158.50512 1484 ft 87 kts 329°
2026-05-07 19:51 53.09721 158.50029 1425 ft 90 kts 330°
2026-05-07 19:51 53.10274 158.49532 1375 ft 90 kts 329°
2026-05-07 19:51 53.10827 158.49045 1300 ft 91 kts 330°
2026-05-07 19:52 53.11392 158.48575 1201 ft 88 kts 333°
2026-05-07 19:52 53.11941 158.48166 1059 ft 87 kts 336°
2026-05-07 19:52 53.12502 158.47787 871 ft 87 kts 337°
2026-05-07 19:52 53.13047 158.47397 710 ft 84 kts 336°
2026-05-07 19:53 53.13568 158.47025 563 ft 81 kts 337°
2026-05-07 19:53 53.14075 158.46684 448 ft 77 kts 338°
2026-05-07 19:53 53.14560 158.46353 355 ft 74 kts 336°
2026-05-07 19:53 53.15031 158.46008 253 ft 73 kts 338°
2026-05-07 19:54 53.15487 158.45683 164 ft 70 kts 338°
2026-05-07 19:54 53.15901 158.45391 135 ft 59 kts 337°
2026-05-07 19:54 53.16233 158.45158 135 ft 45 kts 337°
2026-05-07 19:54 53.16481 158.44981 135 ft 33 kts 336°
2026-05-07 19:55 53.16662 158.44854 135 ft 25 kts 336°
2026-05-07 19:55 53.16840 158.44725 135 ft 28 kts 337°
2026-05-07 19:55 53.16999 158.44612 135 ft 22 kts 337°
2026-05-07 19:55 53.17125 158.44520 135 ft 11 kts 335°
2026-05-07 19:56 53.17139 158.44449 135 ft 13 kts 246°
2026-05-07 19:56 53.17113 158.44351 135 ft 5 kts 246°
2026-05-07 19:56 53.17109 158.44334 135 ft 0 kts 245°
2026-05-07 19:57 53.17131 158.44290 135 ft 19 kts 334°
2026-05-07 19:57 53.17273 158.44194 135 ft 21 kts 338°
2026-05-07 19:57 53.17379 158.44122 135 ft 12 kts 338°
2026-05-07 19:57 53.17430 158.44080 135 ft 4 kts 281°
2026-05-07 19:58 53.17386 158.43997 135 ft 11 kts 232°
2026-05-07 19:58 53.17280 158.43764 135 ft 31 kts 236°
2026-05-07 19:58 53.17168 158.43427 135 ft 34 kts 244°
2026-05-07 19:58 53.17097 158.43107 135 ft 24 kts 257°
2026-05-07 19:59 53.17059 158.42892 135 ft 15 kts 246°
2026-05-07 19:59 53.17011 158.42763 135 ft 12 kts 234°
2026-05-07 19:59 53.17014 158.42671 135 ft 8 kts 329°
2026-05-07 19:59 53.17067 158.42628 135 ft 12 kts 339°
2026-05-07 20:00 53.17085 158.42579 136 ft 4 kts 229°
2026-05-07 20:00 53.17076 158.42561 136 ft 0 kts 233°